GEFSNGP_con_maxscp_120.txt.gz
SCP
0 0 0 0 0 0 0 0 0 0 1 1 2 2 3 3 3 2 2 3 3 2 2 2 2 2 2 2 2 2 2 3 3 3 3 2 2 1 1 1 1 1 0 0
0 0 1 1 0 0 0 1 1 1 1 2 2 2 3 3 3 3 2 2 3 2 2 1 2 2 2 2 3 2 2 2 2 2 2 2 1 1 1 1 1 1 0 0
0 1 1 1 1 1 1 1 1 1 1 2 3 3 3 3 3 3 2 2 2 2 1 1 1 1 2 2 3 3 2 2 2 2 2 1 1 1 1 1 1 1 0 0
0 1 1 1 1 2 2 2 2 2 2 2 3 4 4 3 3 3 3 2 2 2 2 2 1 1 2 2 2 3 3 3 2 2 1 1 1 1 1 1 1 0 0 0
1 1 1 1 1 1 2 2 2 2 3 3 3 4 5 4 4 4 3 2 2 3 3 3 2 2 3 3 4 4 4 4 3 2 2 2 1 1 1 0 0 0 0 0
1 1 1 1 1 1 1 1 2 3 3 3 4 5 4 4 4 3 3 2 2 4 6 6 5 6 6 7 7 6 6 4 3 2 2 1 1 1 0 0 0 0 0 0
1 1 1 1 1 1 1 1 2 3 3 4 4 4 4 4 4 3 3 3 4 7 8 8 8 8 9 8 7 6 5 3 2 1 1 1 1 0 0 0 0 0 0 0
0 0 1 1 1 1 1 1 2 3 3 3 3 3 3 4 4 4 4 5 7 9 9 8 7 7 6 5 4 3 2 2 1 1 0 0 0 0 0 0 0 0 0 0
0 0 0 0 1 1 1 1 2 2 2 2 2 2 3 3 4 5 6 7 8 8 6 5 4 3 3 2 2 1 1 0 0 0 0 0 0 0 0 0 0 0 0 0
0 0 0 0 0 1 1 1 1 1 1 1 2 2 2 3 3 4 5 6 6 5 4 3 2 2 2 1 1 0 0 0 0 0 0 0 0 0 0 0 0 0 0 0
0 0 0 0 0 0 0 1 1 1 1 1 2 2 2 2 2 3 3 3 2 2 2 1 1 1 1 0 0 0 0 0 0 0 0 0 0 0 0 0 0 0 0 0
0 0 0 0 0 0 0 0 0 1 1 1 1 1 2 2 2 2 1 1 1 1 0 0 0 0 0 0 0 0 0 0 0 0 0 0 0 0 0 0 0 0 0 0
0 0 0 0 0 0 0 0 0 1 1 1 1 1 2 2 2 1 0 0 0 0 0 0 0 0 0 0 0 0 0 0 0 0 0 0 0 0 0 0 0 0 0 0
0 0 0 0 0 0 0 0 0 0 0 0 1 1 2 2 1 1 0 0 0 0 0 0 0 0 0 0 0 0 0 0 0 0 0 0 0 0 0 0 0 0 0 0
0 0 0 0 0 0 0 0 0 0 0 0 0 1 1 1 0 0 0 0 0 0 0 0 0 0 0 0 0 0 0 0 0 0 0 0 0 0 0 0 0 0 0 0
0 0 0 0 0 0 0 0 0 0 0 0 0 0 0 0 0 0 0 0 0 0 0 0 0 0 0 0 0 0 0 0 0 0 0 0 0 0 0 0 0 0 0 0
0 0 0 0 0 0 0 0 0 0 0 0 0 0 0 0 0 0 0 0 0 0 0 0 0 0 0 0 0 0 0 0 0 0 0 0 0 0 0 0 0 0 0 0
0 0 0 0 0 0 0 0 0 0 0 0 0 0 0 0 0 0 0 0 0 0 0 0 0 0 0 0 0 0 0 0 0 0 0 0 0 0 0 0 0 0 0 0
0 0 0 0 0 0 0 0 0 0 0 0 0 0 0 0 0 0 0 0 0 0 0 0 0 0 0 0 0 0 0 0 0 0 0 0 0 0 0 0 0 0 0 0
0 0 0 0 0 0 0 0 0 0 0 0 0 0 0 0 0 0 0 0 0 0 0 0 0 0 0 0 0 0 0 0 0 0 0 0 0 0 0 0 0 0 0 0
0 0 0 0 0 0 0 0 0 0 0 0 0 0 0 0 0 0 0 0 0 0 0 0 0 0 0 0 0 0 0 0 0 0 0 0 0 0 0 0 0 0 0 0
0 0 0 0 0 0 0 0 0 0 0 0 0 0 0 0 0 0 0 0 0 0 0 0 0 0 0 0 0 0 0 0 0 0 0 0 0 0 0 0 0 0 0 0
0 0 0 0 0 0 0 0 0 0 0 0 0 0 0 0 0 0 0 0 0 0 0 0 0 0 0 0 0 0 0 0 0 0 0 0 0 0 0 0 0 0 0 0
0 0 0 0 0 0 0 0 0 0 0 0 0 0 0 0 0 0 0 0 0 0 0 0 0 0 0 0 0 0 0 0 0 0 0 0 0 0 0 0 0 0 0 0
0 0 0 0 0 0 0 0 0 0 0 0 0 0 0 0 0 0 0 0 0 0 0 0 0 0 0 0 0 0 0 0 0 0 0 0 0 0 0 0 0 0 0 0
0 0 0 0 0 0 0 0 0 0 0 0 0 0 0 0 0 0 0 0 0 0 0 0 0 0 0 0 0 0 0 0 0 0 0 0 0 0 0 0 0 0 0 0
0 0 0 0 0 0 0 0 0 0 0 0 0 0 0 0 0 0 0 0 0 0 0 0 0 0 0 0 0 0 0 0 0 0 0 0 0 0 0 0 0 0 0 0

GEFSNGP_con_maxscp_126.txt.gz
SCP
0 0 0 0 1 0 0 0 0 0 0 0 1 1 1 1 1 1 1 2 1 1 1 1 1 1 1 0 1 1 1 1 1 1 1 1 1 1 1 1 0 0 0 0
0 0 0 1 1 0 0 0 0 0 0 1 1 1 1 1 1 1 1 1 1 1 1 1 1 1 0 1 1 1 1 2 2 1 1 1 1 1 1 1 0 0 0 0
0 0 0 1 1 1 1 0 0 1 1 1 1 1 1 1 1 1 1 1 1 0 0 0 0 0 0 1 1 1 1 2 2 2 1 1 1 1 1 0 0 0 0 0
0 0 1 1 1 1 1 1 1 1 2 2 2 1 1 1 1 1 1 1 1 0 0 0 0 0 0 0 1 1 1 2 2 2 1 1 1 1 1 0 0 0 0 0
1 1 1 1 1 1 1 1 1 1 2 2 1 1 1 1 1 1 1 1 1 0 0 1 1 0 0 0 1 1 1 2 2 2 2 1 1 1 1 0 0 0 0 0
1 1 1 1 0 1 1 1 1 1 1 1 1 1 1 1 1 1 1 1 1 1 1 1 1 1 1 1 1 1 1 2 2 2 2 1 1 1 1 0 0 0 0 0
0 1 1 0 0 0 1 1 1 1 1 1 0 0 0 1 1 1 1 2 2 1 1 1 1 1 1 1 1 1 2 2 2 2 1 1 1 0 0 0 0 0 0 0
0 0 0 0 0 0 0 0 1 1 1 1 1 1 1 1 1 1 1 2 2 1 1 1 1 1 1 2 2 2 2 2 2 1 1 1 0 0 0 0 0 0 0 0
0 0 0 0 0 0 0 1 1 1 1 1 1 1 1 1 1 1 1 1 2 1 1 1 1 1 2 2 2 2 2 2 1 1 0 0 0 0 0 0 0 0 0 0
0 0 0 0 0 0 1 1 1 1 1 1 1 1 2 1 1 1 1 1 1 1 1 1 1 1 1 2 2 2 1 1 0 0 0 0 0 0 0 0 0 0 0 0
0 0 0 0 0 0 1 1 1 1 1 1 1 1 1 1 1 1 1 1 1 1 1 1 1 1 1 1 1 1 1 0 0 0 0 0 0 0 0 0 0 0 0 0
0 0 0 0 0 0 0 0 0 0 0 0 0 0 0 1 1 1 1 1 1 1 1 1 1 0 0 0 0 0 0 0 0 0 0 0 0 0 0 0 0 0 0 0
0 0 0 0 0 0 0 0 0 0 0 0 0 0 0 0 0 0 0 1 1 1 1 0 0 0 0 0 0 0 0 0 0 0 0 0 0 0 0 0 0 0 0 0
0 0 0 0 0 0 0 0 0 0 0 0 0 0 0 0 0 0 0 0 0 0 0 0 0 0 0 0 0 0 0 0 0 0 0 0 0 0 0 0 0 0 0 0
0 0 0 0 0 0 0 0 0 0 0 0 0 0 0 0 0 0 0 0 0 0 0 0 0 0 0 0 0 0 0 0 0 0 0 0 0 0 0 0 0 0 0 0
0 0 0 0 0 0 0 0 0 0 0 0 0 0 0 0 0 0 0 0 0 0 0 0 0 0 0 0 0 0 0 0 0 0 0 0 0 0 0 0 0 0 0 0
0 0 0 0 0 0 0 0 0 0 0 0 0 0 0 0 0 0 0 0 0 0 0 0 0 0 0 0 0 0 0 0 0 0 0 0 0 0 0 0 0 0 0 0
0 0 0 0 0 0 0 0 0 0 0 0 0 0 0 0 0 0 0 0 0 0 0 0 0 0 0 0 0 0 0 0 0 0 0 0 0 0 0 0 0 0 0 0
0 0 0 0 0 0 0 0 0 0 0 0 0 0 0 0 0 0 0 0 0 0 0 0 0 0 0 0 0 0 0 0 0 0 0 0 0 0 0 0 0 0 0 0
0 0 0 0 0 0 0 0 0 0 0 0 0 0 0 0 0 0 0 0 0 0 0 0 0 0 0 0 0 0 0 0 0 0 0 0 0 0 0 0 0 0 0 0
0 0 0 0 0 0 0 0 0 0 0 0 0 0 0 0 0 0 0 0 0 0 0 0 0 0 0 0 0 0 0 0 0 0 0 0 0 0 0 0 0 0 0 0
0 0 0 0 0 0 0 0 0 0 0 0 0 0 0 0 0 0 0 0 0 0 0 0 0 0 0 0 0 0 0 0 0 0 0 0 0 0 0 0 0 0 0 0
0 0 0 0 0 0 0 0 0 0 0 0 0 0 0 0 0 0 0 0 0 0 0 0 0 0 0 0 0 0 0 0 0 0 0 0 0 0 0 0 0 0 0 0
0 0 0 0 0 0 0 0 0 0 0 0 0 0 0 0 0 0 0 0 0 0 0 0 0 0 0 0 0 0 0 0 0 0 0 0 0 0 0 0 0 0 0 0
0 0 0 0 0 0 0 0 0 0 0 0 0 0 0 0 0 0 0 0 0 0 0 0 0 0 0 0 0 0 0 0 0 0 0 0 0 0 0 0 0 0 0 0
0 0 0 0 0 0 0 0 0 0 0 0 0 0 0 0 0 0 0 0 0 0 0 0 0 0 0 0 0 0 0 0 0 0 0 0 0 0 0 0 0 0 0 0
0 0 0 0 0 0 0 0 0 0 0 0 0 0 0 0 0 0 0 0 0 0 0 0 0 0 0 0 0 0 0 0 0 0 0 0 0 0 0 0 0 0 0 0

GEFSNGP_con_maxscp_132.txt.gz
SCP
0 0 0 0 0 0 0 0 0 0 1 1 1 1 1 2 3 3 4 3 3 3 3 2 2 2 2 2 2 2 3 3 3 3 2 2 2 2 3 3 3 3 2 2
0 0 0 0 0 0 0 0 0 1 1 1 1 1 2 2 3 4 4 3 3 3 2 2 2 2 1 2 2 2 2 2 2 2 2 2 2 2 3 3 3 3 3 3
0 0 0 1 1 1 1 1 1 1 1 1 2 2 2 2 3 4 4 3 3 3 2 2 2 1 1 1 1 1 2 2 2 1 1 1 2 2 2 2 3 3 3 3
0 0 0 1 1 1 1 1 1 1 1 1 2 2 2 2 3 3 3 3 3 3 2 2 2 1 1 1 1 1 1 1 1 1 1 1 1 2 2 2 2 2 2 3
0 0 0 1 1 1 1 1 1 1 1 2 2 2 2 2 2 3 4 4 3 2 2 2 1 1 1 1 1 1 1 2 2 2 2 2 2 2 2 2 2 2 2 2
0 0 0 1 1 1 1 1 1 1 2 2 2 2 3 3 3 3 4 4 3 2 2 2 2 2 1 1 1 2 2 2 2 2 2 2 2 2 2 2 2 2 2 2
0 0 1 1 1 1 1 2 2 2 3 3 3 3 3 4 4 4 3 3 3 3 2 2 2 2 2 2 2 2 2 3 3 3 2 2 2 2 2 2 2 1 1 1
1 1 1 1 1 2 2 3 3 3 4 4 4 4 4 4 4 3 3 3 3 3 3 3 3 2 2 2 2 2 3 3 3 3 3 3 3 3 3 2 1 1 1 1
1 1 1 1 2 3 4 4 5 4 4 4 4 3 3 3 3 4 4 4 4 4 4 3 3 3 3 3 3 4 4 3 3 3 3 3 3 3 2 2 1 0 0 0
2 2 2 2 3 3 4 5 5 4 4 3 2 2 2 2 3 4 5 5 5 5 4 4 3 3 3 3 4 4 5 4 3 3 3 2 2 1 1 1 1 0 0 0
2 2 2 3 4 4 4 5 4 4 3 2 2 2 2 3 4 5 5 5 4 4 4 3 3 3 3 3 4 5 4 3 2 2 1 1 0 0 0 0 0 0 0 0
3 3 3 4 5 4 4 4 3 3 2 2 2 2 2 3 4 5 5 5 3 2 2 3 3 4 4 5 5 4 3 2 1 1 0 0 0 0 0 0 0 0 0 0
3 3 4 4 4 4 3 3 2 2 1 1 1 1 1 1 2 3 4 4 3 2 2 3 4 5 5 5 4 3 2 1 0 0 0 0 0 0 0 0 0 0 0 0
3 3 4 4 3 2 2 2 1 1 1 1 1 1 1 1 1 2 3 3 2 2 2 3 4 5 5 4 2 1 0 0 0 0 0 0 0 0 0 0 0 0 0 0
2 3 3 2 2 1 1 1 1 1 1 1 1 1 1 1 1 1 2 2 2 2 2 2 3 3 3 2 1 0 0 0 0 0 0 0 0 0 0 0 0 0 0 0
1 1 1 1 1 1 1 1 1 1 1 0 0 0 1 1 1 1 2 2 2 1 1 1 1 1 1 0 0 0 0 0 0 0 0 0 0 0 0 0 0 0 0 0
1 1 1 1 1 1 1 1 1 0 0 0 0 0 0 1 1 2 2 2 2 1 1 1 0 0 0 0 0 0 0 0 0 0 0 0 0 0 0 0 0 0 0 0
1 1 1 1 1 1 1 1 1 0 0 0 0 0 0 1 2 2 3 2 2 1 1 0 0 0 0 0 0 0 0 0 0 0 0 0 0 0 0 0 0 0 0 0
1 1 0 0 0 1 1 1 1 0 0 0 0 0 0 1 2 3 3 2 1 1 0 0 0 0 0 0 0 0 0 0 0 0 0 0 0 0 0 0 0 0 0 0
1 0 0 0 0 0 1 1 1 0 0 0 0 0 0 0 1 2 2 2 1 0 0 0 0 0 0 0 0 0 0 0 0 0 0 0 0 0 0 0 0 0 0 0
0 0 0 0 0 0 0 0 0 0 0 0 0 0 0 0 1 1 1 1 0 0 0 0 0 0 0 0 0 0 0 0 0 0 0 0 0 0 0 0 0 0 0 0
0 0 0 0 0 0 0 0 0 0 0 0 0 0 0 0 0 0 0 0 0 0 0 0 0 0 0 0 0 0 0 0 0 0 0 0 0 0 0 0 0 0 0 0
0 0 0 0 0 0 0 0 0 0 0 0 0 0 0 0 0 0 0 0 0 0 0 0 0 0 0 0 0 0 0 0 0 0 0 0 0 0 0 0 0 0 0 0
0 0 0 0 0 0 0 0 0 0 0 0 0 0 0 0 0 0 0 0 0 0 0 0 0 0 0 0 0 0 0 0 0 0 0 0 0 0 0 0 0 0 0 0
0 0 0 0 0 0 0 0 0 0 0 0 0 0 0 0 0 0 0 0 0 0 0 0 0 0 0 0 0 0 0 0 0 0 0 0 0 0 0 0 0 0 0 0
0 0 0 0 0 0 0 0 0 0 0 0 0 0 0 0 0 0 0 0 0 0 0 0 0 0 0 0 0 0 0 0 0 0 0 0 0 0 0 0 0 0 0 0
0 0 0 0 0 0 0 0 0 0 0 0 0 0 0 0 0 0 0 0 0 0 0 0 0 0 0 0 0 0 0 0 0 0 0 0 0 0 0 0 0 0 0 0

GEFSNGP_con_maxscp_138.txt.gz
SCP
0 0 0 0 0 0 0 1 1 2 3 3 3 4 4 5 4 4 4 4 5 5 4 4 4 5 4 4 4 4 4 4 4 4 4 4 4 4 3 3 3 2 2 2
0 0 0 0 0 0 0 1 1 2 2 3 3 4 5 5 4 4 4 4 5 5 5 4 4 4 4 4 4 4 4 4 4 4 4 4 4 4 4 3 3 2 2 2
0 0 0 0 0 1 1 1 1 2 4 4 5 5 6 5 4 4 4 5 6 6 5 5 4 4 4 3 3 3 4 4 4 3 3 3 3 4 3 3 3 3 3 3
0 0 0 0 1 1 2 2 2 3 5 6 6 6 6 5 5 5 5 6 7 6 6 5 4 4 4 3 3 3 4 4 4 3 3 2 3 3 3 3 3 3 3 3
0 0 1 1 1 1 3 3 3 5 7 7 6 5 6 6 6 6 7 8 7 7 7 6 5 5 4 4 3 3 3 4 4 3 3 2 2 3 2 2 2 2 3 3
1 0 1 1 1 1 2 3 3 5 8 8 6 5 6 6 6 7 7 7 7 7 7 7 6 5 4 3 3 3 4 4 3 3 3 3 3 3 3 3 2 2 2 3
1 1 1 1 2 2 3 4 5 6 7 7 7 7 7 7 7 7 7 6 7 7 7 7 6 5 4 3 3 4 5 5 4 3 3 3 3 3 3 3 3 3 3 4
1 1 2 2 3 4 5 6 7 7 8 9 9 8 7 7 7 7 6 6 7 8 8 7 6 5 5 4 4 5 6 6 5 5 4 4 4 3 3 3 4 4 4 4
3 3 4 4 5 5 6 6 7 7 9 12 10 7 6 6 6 5 5 6 8 9 9 7 6 6 6 6 5 6 7 8 8 7 6 5 4 3 3 3 3 3 3 3
5 5 6 6 6 6 6 6 5 5 7 9 8 6 6 5 5 5 5 6 8 9 9 7 7 7 7 7 6 7 9 10 10 8 6 4 3 2 2 1 1 1 1 1
5 6 7 8 7 6 5 5 5 5 5 5 6 5 6 6 5 5 5 6 8 10 9 8 8 8 7 7 7 8 10 11 9 7 4 2 1 1 1 1 0 0 0 0
4 4 6 7 7 5 4 5 5 5 5 4 5 5 5 5 6 5 5 6 8 10 9 9 9 8 7 6 6 8 10 9 6 3 1 0 0 0 0 0 0 0 0 0
3 3 4 5 5 4 3 4 5 5 6 5 4 4 4 4 5 5 4 5 6 7 7 8 8 7 6 5 6 8 8 6 3 1 0 0 0 0 0 0 0 0 0 0
2 2 3 3 2 2 2 2 3 5 6 6 4 3 3 2 3 3 3 3 3 4 4 5 5 5 4 5 5 5 4 3 2 1 0 0 0 0 0 0 0 0 0 0
2 2 2 2 1 1 1 2 2 3 4 4 3 3 2 2 2 1 1 1 2 2 2 3 3 3 3 3 3 2 2 2 2 1 1 0 0 0 0 0 0 0 0 0
1 1 1 1 1 1 1 1 1 2 2 2 2 2 2 2 1 1 1 1 1 2 2 2 2 1 1 1 1 1 1 1 1 1 1 0 0 0 0 0 0 0 0 0
1 1 1 1 1 1 1 1 1 1 2 2 2 2 2 1 1 1 1 1 1 2 2 2 2 1 1 0 0 0 0 0 0 0 0 0 0 0 0 0 0 0 0 0
1 1 1 1 1 1 1 1 1 1 2 2 2 1 1 1 1 0 0 1 1 2 3 3 2 1 1 0 0 0 0 0 0 0 0 0 0 0 0 0 0 0 0 0
1 1 1 1 1 1 1 1 1 2 2 2 1 1 0 0 0 0 0 0 1 2 2 2 1 1 0 0 0 0 0 0 0 0 0 0 0 0 0 0 0 0 0 0
1 1 1 1 1 1 1 1 2 2 1 1 1 0 0 0 0 0 0 0 1 1 1 1 1 0 0 0 0 0 0 0 0 0 0 0 0 0 0 0 0 0 0 0
1 1 1 1 1 1 1 1 1 1 1 1 0 0 0 0 0 0 0 0 0 0 0 0 0 0 0 0 0 0 0 0 0 0 0 0 0 0 0 0 0 0 0 0
1 1 1 1 1 1 1 1 1 1 0 0 0 0 0 0 0 0 0 0 0 0 0 0 0 0 0 0 0 0 0 0 0 0 0 0 0 0 0 0 0 0 0 0
2 1 1 1 1 1 1 1 1 0 0 0 0 0 0 0 0 0 0 0 0 0 0 0 0 0 0 0 0 0 0 0 0 0 0 0 0 0 0 0 0 0 0 0
2 1 1 0 0 0 0 0 0 0 0 0 0 0 0 0 0 0 0 0 0 0 0 0 0 0 0 0 0 0 0 0 0 0 0 0 0 0 0 0 0 0 0 0
1 1 0 0 0 0 0 0 0 0 0 0 0 0 0 0 0 0 0 0 0 0 0 0 0 0 0 0 0 0 0 0 0 0 0 0 0 0 0 0 0 0 0 0
0 0 0 0 0 0 0 0 0 0 0 0 0 0 0 0 0 0 0 0 0 0 0 0 0 0 0 0 0 0 0 0 0 0 0 0 0 0 0 0 0 0 0 0
0 0 0 0 0 0 0 0 0 0 0 0 0 0 0 0 0 0 0 0 0 0 0 0 0 0 0 0 0 0 0 0 0 0 0 0 0 0 0 0 0 0 0 0

GEFSNGP_con_maxscp_144.txt.gz
SCP
0 0 0 0 0 0 0 0 0 1 1 2 3 4 4 4 5 6 7 6 4 3 3 3 3 2 2 2 2 2 2 1 1 1 1 1 1 1 1 2 2 2 1 1
0 0 0 0 1 1 0 0 1 1 1 2 4 4 4 4 5 6 6 5 4 4 4 4 3 2 2 2 2 2 2 2 1 1 1 1 1 1 2 2 2 2 2 1
0 0 0 0 1 1 1 1 1 2 2 3 5 5 4 5 5 5 5 5 5 5 4 4 3 2 2 2 2 2 2 1 1 1 1 1 1 2 2 2 2 2 2 2
0 0 0 0 1 1 1 2 2 2 3 4 5 5 4 4 4 4 5 5 5 5 5 4 3 3 3 2 2 2 2 1 1 1 1 1 1 1 2 2 2 2 2 2
0 0 0 0 1 1 2 2 3 3 3 4 5 5 4 3 3 3 4 5 6 6 6 5 4 3 3 2 2 2 2 2 1 1 1 1 1 1 1 1 2 1 1 1
0 0 0 1 1 1 1 2 3 3 4 4 5 4 3 2 2 3 4 5 6 7 6 5 4 3 3 2 2 2 2 2 2 2 2 1 1 1 1 1 1 1 1 1
0 0 1 1 2 1 1 2 3 3 4 4 5 5 4 3 3 3 4 5 6 6 6 5 4 3 3 2 2 2 2 2 2 2 2 2 2 1 1 1 1 1 1 1
0 0 1 1 2 1 1 2 3 3 4 5 6 6 5 4 4 4 4 4 5 5 5 5 4 3 2 2 1 1 2 2 3 3 3 3 2 2 2 2 1 1 1 1
1 1 1 1 2 2 3 3 4 5 6 8 8 7 5 4 3 3 3 3 4 5 5 4 4 3 2 2 1 2 2 3 3 4 4 3 3 3 3 2 2 2 1 1
2 2 2 2 2 4 5 6 6 7 8 8 8 7 5 4 3 3 3 3 3 5 5 5 4 3 2 2 2 2 2 3 4 5 5 4 3 3 3 3 2 2 1 0
2 2 2 2 3 4 5 6 7 7 7 6 6 5 5 4 4 3 3 2 3 5 6 6 5 4 3 3 2 3 3 4 5 6 5 4 2 2 2 2 2 1 1 0
1 1 1 2 2 3 3 5 5 5 4 3 3 3 3 3 3 3 2 2 3 4 6 6 6 5 4 3 3 3 4 5 5 5 5 3 1 0 1 1 1 0 0 0
1 1 2 2 2 2 2 3 4 3 3 2 2 1 2 2 2 2 2 2 2 4 5 6 6 5 4 4 3 3 4 4 4 3 2 1 0 0 0 0 0 0 0 0
2 2 2 2 1 1 1 2 2 2 2 2 1 1 1 1 1 1 1 1 1 2 3 4 4 4 4 4 3 2 2 2 2 1 1 0 0 0 0 0 0 0 0 0
2 1 1 1 1 1 1 1 1 1 1 1 1 1 1 0 1 1 1 1 1 1 1 2 2 2 2 2 2 1 1 1 1 0 0 0 0 0 0 0 0 0 0 0
1 1 0 0 0 0 0 1 1 1 1 1 1 1 0 0 0 0 0 0 0 0 1 1 1 1 1 1 1 0 0 0 0 0 0 0 0 0 0 0 0 0 0 0
1 0 0 0 0 0 0 0 1 1 1 1 1 0 0 0 0 0 0 0 0 0 0 0 0 0 0 0 0 0 0 0 0 0 0 0 0 0 0 0 0 0 0 0
0 0 0 0 0 0 0 1 1 1 1 1 0 0 0 0 0 0 0 0 0 0 0 0 0 0 0 0 0 0 0 0 0 0 0 0 0 0 0 0 0 0 0 0
0 0 0 0 0 0 0 0 0 0 0 0 0 0 0 0 0 0 0 0 0 0 0 0 0 0 0 0 0 0 0 0 0 0 0 0 0 0 0 0 0 0 0 0
0 0 0 0 0 0 0 0 0 0 0 0 0 0 0 0 0 0 0 0 0 0 0 0 0 0 0 0 0 0 0 0 0 0 0 0 0 0 0 0 0 0 0 0
0 0 0 0 0 0 0 0 0 0 0 0 0 0 0 0 0 0 0 0 0 0 0 0 0 0 0 0 0 0 0 0 0 0 0 0 0 0 0 0 0 0 0 0
0 0 0 0 0 0 0 0 0 0 0 0 0 0 0 0 0 0 0 0 0 0 0 0 0 0 0 0 0 0 0 0 0 0 0 0 0 0 0 0 0 0 0 0
0 0 0 0 0 0 0 0 0 0 0 0 0 0 0 0 0 0 0 0 0 0 0 0 0 0 0 0 0 0 0 0 0 0 0 0 0 0 0 0 0 0 0 0
0 0 0 0 0 0 0 0 0 0 0 0 0 0 0 0 0 0 0 0 0 0 0 0 0 0 0 0 0 0 0 0 0 0 0 0 0 0 0 0 0 0 0 0
0 0 0 0 0 0 0 0 0 0 0 0 0 0 0 0 0 0 0 0 0 0 0 0 0 0 0 0 0 0 0 0 0 0 0 0 0 0 0 0 0 0 0 0
0 0 0 0 0 0 0 0 0 0 0 0 0 0 0 0 0 0 0 0 0 0 0 0 0 0 0 0 0 0 0 0 0 0 0 0 0 0 0 0 0 0 0 0
0 0 0 0 0 0 0 0 0 0 0 0 0 0 0 0 0 0 0 -0 -0 0 0 0 0 0 0 0 0 0 0 0 0 0 0 0 0 0 0 0 0 0 0 0

GEFSNGP_con_maxscp_150.txt.gz
SCP
1 1 1 1 1 0 0 0 0 0 0 0 1 1 1 1 2 2 2 2 2 2 2 1 1 1 1 1 1 1 1 1 1 1 0 0 0 0 0 0 0 1 1 1
1 1 1 1 1 1 0 0 0 0 0 0 1 1 1 1 2 2 2 2 2 2 1 1 1 1 1 1 1 1 1 1 1 1 1 1 0 0 0 0 0 1 1 1
1 1 1 1 1 1 1 0 0 1 1 1 1 1 1 1 1 2 2 3 3 2 1 1 1 1 1 1 1 1 1 1 1 1 1 1 1 1 1 0 0 0 1 1
0 0 0 0 0 1 1 1 1 1 1 1 1 2 1 1 1 2 2 3 3 2 1 1 1 1 1 1 1 1 1 1 1 1 1 1 1 1 0 0 0 0 1 1
0 0 0 0 1 1 1 1 1 1 1 1 2 2 2 1 1 2 2 2 2 2 2 2 2 2 2 2 2 1 1 1 1 1 1 1 1 1 0 0 0 0 0 0
0 0 0 0 1 1 1 1 1 1 1 1 2 2 2 1 1 1 1 2 2 2 2 2 3 3 3 2 2 2 1 1 1 1 1 1 1 1 1 1 0 0 0 0
0 0 0 0 0 0 0 1 1 1 1 1 2 2 1 1 1 1 1 1 2 3 3 4 4 4 4 3 2 2 1 1 1 1 1 2 1 1 1 1 1 0 0 0
0 0 0 0 1 1 1 1 1 1 1 1 1 2 2 2 2 2 1 1 2 3 4 5 5 5 5 3 2 2 2 1 1 1 1 1 2 2 1 1 1 1 1 1
0 0 0 0 1 1 1 1 1 1 1 2 2 2 2 2 2 2 2 2 2 3 5 6 6 6 5 3 2 2 2 2 1 1 1 1 1 2 2 2 2 2 1 1
1 1 1 1 1 1 1 1 2 2 2 2 2 2 2 3 3 2 2 2 2 3 4 5 5 4 4 3 2 2 2 2 2 1 1 1 1 2 2 2 2 2 2 2
1 1 1 1 1 1 1 2 2 2 2 2 2 2 2 3 2 2 2 2 2 3 3 3 3 3 2 2 2 2 2 2 2 2 2 2 1 1 1 2 2 2 2 2
0 1 1 1 1 1 1 2 2 2 2 2 2 2 2 2 2 2 2 2 2 2 2 2 2 2 2 2 2 2 3 3 2 2 2 1 1 1 1 1 1 1 1 2
0 0 0 1 1 1 1 2 2 2 2 2 2 2 1 1 1 2 2 2 2 2 2 2 2 2 2 2 2 3 3 3 2 1 1 1 1 0 0 0 0 0 0 1
0 0 0 0 0 1 1 2 2 1 1 1 1 1 1 1 1 1 1 1 1 1 1 1 1 1 2 2 3 3 3 3 2 1 1 0 0 0 0 0 0 0 0 0
0 0 0 0 0 0 1 1 2 1 1 1 1 0 0 0 0 1 1 1 1 1 1 1 1 1 2 3 3 3 3 2 1 0 0 0 0 0 0 0 0 0 0 0
0 0 0 0 0 0 0 1 1 1 1 1 1 0 0 0 0 0 0 0 0 0 0 0 1 1 2 2 2 2 2 1 0 0 0 0 0 0 0 0 0 0 0 0
0 0 0 0 0 0 0 0 1 1 1 0 0 0 0 0 0 0 0 0 0 0 0 0 0 0 1 1 1 1 1 0 0 0 0 0 0 0 0 0 0 0 0 0
0 0 0 0 0 0 0 0 0 0 0 0 0 0 0 0 0 0 0 0 0 0 0 0 0 0 0 0 0 0 0 0 0 0 0 0 0 0 0 0 0 0 0 0
0 0 0 0 0 0 0 0 0 0 0 0 0 0 0 0 0 0 0 0 0 0 0 0 0 0 0 0 0 0 0 0 0 0 0 0 0 0 0 0 0 0 0 0
0 0 0 0 0 0 0 0 0 0 0 0 0 0 0 0 0 0 0 0 0 0 0 0 0 0 0 0 0 0 0 0 0 0 0 0 0 0 0 0 0 0 0 0
0 0 0 0 0 0 0 0 0 0 0 0 0 0 0 0 0 0 0 0 0 0 0 0 0 0 0 0 0 0 0 0 0 0 0 0 0 0 0 0 0 0 0 0
0 0 0 0 0 0 0 0 0 0 0 0 0 0 0 0 0 0 0 0 0 0 0 0 0 0 0 0 0 0 0 0 0 0 0 0 0 0 0 0 0 0 0 0
0 0 0 0 0 0 0 0 0 0 0 0 0 0 0 0 0 0 0 0 0 0 0 0 0 0 0 0 0 0 0 0 0 0 0 0 0 0 0 0 0 0 0 0
0 0 0 0 0 0 0 0 0 0 0 0 0 0 0 0 0 0 0 0 0 0 0 0 0 0 0 0 0 0 0 0 0 0 0 0 0 0 0 0 0 0 0 0
0 0 0 0 0 0 0 0 0 0 0 0 0 0 0 0 0 0 0 0 0 0 0 0 0 0 0 0 0 0 0 0 0 0 0 0 0 0 0 0 0 0 0 0
0 0 0 0 0 0 0 0 0 0 0 0 0 0 0 0 0 0 0 0 0 0 0 0 0 0 0 0 0 0 0 0 0 0 0 0 0 0 0 0 0 0 0 0
0 0 0 0 0 0 0 0 0 0 0 0 0 0 0 0 0 0 0 0 0 0 0 0 0 0 0 0 0 0 0 0 0 0 0 0 0 0 0 0 0 0 0 0

GEFSNGP_con_maxscp_156.txt.gz
SCP
0 1 1 0 0 0 0 0 0 0 1 1 2 2 2 2 2 2 2 3 3 3 3 3 3 3 3 2 2 2 2 2 2 2 2 2 2 1 1 1 1 1 1 1
0 0 1 1 1 0 0 0 0 0 1 2 2 2 2 2 2 2 2 3 3 4 3 3 3 4 3 2 2 2 2 2 2 2 2 2 2 1 1 1 1 1 1 1
0 0 0 1 1 1 1 1 1 1 1 2 3 3 2 2 2 2 2 3 4 5 5 4 4 4 4 3 2 2 2 2 2 2 3 2 2 2 1 1 1 1 1 1
0 0 0 1 1 1 1 1 1 1 2 3 3 3 2 2 2 2 3 4 6 6 6 4 4 4 4 4 3 3 2 3 3 3 3 2 2 2 2 1 1 1 1 1
0 0 0 1 1 1 1 1 1 2 2 3 3 2 2 2 2 3 3 5 7 7 6 5 4 3 4 4 4 4 3 3 3 3 3 3 3 2 2 1 1 1 1 1
0 0 0 1 1 1 1 1 1 1 2 2 2 2 2 2 3 4 5 6 7 6 5 5 4 4 4 5 6 6 6 5 4 3 3 3 3 3 2 2 1 1 1 1
0 0 1 1 1 1 1 1 1 2 2 2 2 2 3 3 4 5 6 6 6 5 4 5 5 5 5 5 6 8 8 6 4 3 3 3 4 4 3 3 2 2 2 2
1 1 1 1 1 1 2 2 2 2 2 2 2 3 4 4 5 6 7 6 5 4 4 5 5 6 6 6 7 8 7 5 4 4 4 4 4 4 4 3 3 3 2 2
1 1 2 2 2 2 2 2 2 2 2 2 2 3 5 5 5 6 5 5 4 4 4 5 6 6 6 7 8 8 6 5 4 5 5 5 5 4 4 3 3 3 3 2
2 2 2 2 2 2 3 3 3 2 2 2 2 3 4 4 4 4 4 4 4 4 4 5 6 6 6 8 9 8 7 5 5 6 6 5 5 4 4 3 3 2 2 2
2 2 3 3 3 3 3 4 3 3 2 2 3 3 3 3 3 3 4 4 5 5 4 5 5 5 6 7 9 8 7 7 6 6 6 5 5 4 3 2 2 2 1 1
2 2 2 3 3 3 4 5 4 4 3 3 3 3 3 3 3 3 4 5 5 6 5 5 6 5 5 6 8 8 8 7 6 6 5 4 4 4 3 1 1 1 1 1
2 2 2 2 2 3 4 5 5 4 4 4 4 3 3 3 3 3 4 5 6 7 8 8 7 7 7 7 7 7 6 6 6 5 5 4 3 3 2 1 1 0 0 0
2 2 2 2 2 2 3 4 4 5 5 5 4 4 3 3 3 3 4 5 6 7 8 8 8 8 7 7 6 6 5 5 5 5 4 3 3 2 2 1 1 1 0 0
1 1 1 1 2 2 2 3 4 4 5 5 4 4 3 3 3 3 4 4 5 5 5 5 5 6 6 5 5 5 4 4 4 4 3 2 2 2 1 1 1 0 0 0
1 1 1 1 2 2 2 2 3 3 4 5 5 4 4 3 3 3 2 2 2 2 2 2 2 3 3 3 3 3 3 3 3 3 2 2 1 1 0 0 0 0 0 0
1 1 1 1 1 2 2 2 1 2 3 4 4 4 4 3 3 2 2 1 1 1 1 1 1 1 1 1 1 2 2 2 2 2 2 1 1 1 0 0 0 0 0 0
1 1 1 1 1 1 1 1 0 1 1 2 2 3 3 3 2 2 1 1 1 1 1 0 0 0 0 1 1 1 1 2 1 1 1 1 1 1 0 0 0 0 0 0
1 1 1 0 0 0 0 0 0 0 0 0 1 1 1 1 1 1 1 0 0 1 1 0 0 1 1 0 0 1 1 1 1 1 1 1 0 0 0 0 0 0 0 0
0 1 1 0 0 0 0 0 0 0 0 0 1 1 1 1 1 1 1 1 1 1 1 0 1 1 1 1 0 0 1 1 1 1 0 0 0 0 0 0 0 0 0 0
0 0 0 1 0 0 0 0 0 0 0 0 1 1 1 1 0 1 1 1 1 1 0 0 1 1 1 0 0 0 0 0 0 0 0 0 0 0 0 0 0 0 0 0
0 0 0 0 0 0 0 0 0 0 0 1 1 1 1 1 0 0 1 1 1 0 0 0 0 0 0 0 0 0 0 0 0 0 0 0 0 0 0 0 0 0 0 0
0 0 0 0 0 0 0 0 0 0 0 1 1 1 1 0 0 0 0 1 1 0 0 0 0 0 0 0 0 0 0 0 0 0 0 0 0 0 0 0 0 0 0 0
0 0 0 0 0 0 0 0 0 0 0 0 0 1 1 1 0 0 0 0 0 0 0 0 0 0 0 0 0 0 0 0 0 0 0 0 0 0 0 0 0 0 0 0
0 0 0 0 0 0 0 0 0 0 0 0 0 0 0 0 0 0 0 0 0 0 0 0 0 0 0 0 0 0 0 0 0 0 0 0 0 0 0 0 0 0 0 0
0 0 0 0 0 0 0 0 0 0 0 0 0 0 0 0 0 0 0 0 0 0 0 0 0 0 0 0 0 0 0 0 0 0 0 0 0 0 0 0 0 0 0 0
0 0 0 0 0 0 0 0 0 0 0 0 0 0 0 0 0 0 0 0 0 0 0 0 0 0 0 0 0 0 0 0 0 0 0 0 0 0 0 0 0 0 0 0

GEFSNGP_con_maxscp_162.txt.gz
SCP
0 0 0 0 0 0 0 0 0 1 3 6 7 6 4 3 3 3 3 3 3 5 6 8 8 6 5 4 4 4 4 5 5 5 5 5 4 4 4 3 3 3 3 3
0 0 0 0 0 0 0 1 1 2 3 6 7 6 4 3 3 3 3 3 4 5 7 9 9 8 6 6 5 5 5 5 5 5 5 5 4 4 3 3 3 3 2 2
0 0 0 0 0 0 1 1 2 3 4 6 7 7 5 4 4 4 4 4 5 6 8 11 11 9 8 8 7 6 6 6 6 5 5 4 4 3 3 3 3 3 3 2
0 0 0 0 1 1 1 2 2 3 6 8 8 7 5 4 4 5 5 5 6 7 10 11 11 9 8 8 7 7 6 6 5 4 4 4 4 4 4 4 3 3 3 3
0 0 0 1 1 1 2 2 3 4 7 9 9 6 4 5 5 5 6 6 7 10 12 11 10 8 7 7 7 7 6 5 4 4 4 4 4 4 4 4 4 3 3 3
1 1 1 2 2 2 2 3 4 5 7 8 7 5 5 6 6 7 7 8 9 12 13 11 10 9 8 7 7 8 7 6 5 5 5 5 4 5 5 5 4 3 3 3
1 1 2 3 3 3 3 4 5 6 6 6 6 5 6 7 8 9 10 11 12 13 13 13 12 11 10 8 7 8 8 8 7 7 6 6 6 6 6 6 5 4 3 3
1 2 3 3 4 3 4 5 6 7 7 7 7 6 6 7 9 10 13 14 14 13 14 15 13 12 10 8 7 7 9 10 10 9 8 7 7 8 7 6 6 5 4 4
2 3 4 4 4 4 4 5 6 6 7 6 6 5 5 7 10 11 12 13 12 12 14 13 11 10 9 9 7 8 10 12 13 11 9 8 8 9 8 7 6 5 4 4
4 5 6 6 5 4 4 5 5 6 6 5 5 5 6 9 11 10 10 9 9 10 11 11 10 9 8 8 8 9 10 13 15 14 11 10 10 10 8 6 5 5 5 5
6 7 8 7 6 5 6 6 6 6 5 5 5 6 9 11 10 8 8 8 9 10 11 11 10 9 8 8 8 8 9 13 16 15 13 11 11 9 6 4 3 3 4 4
6 7 7 6 5 5 6 6 6 6 6 6 7 9 10 9 8 7 8 8 9 10 10 9 9 8 7 7 8 8 10 13 14 13 12 12 11 7 3 2 1 1 1 1
6 5 5 5 4 4 5 5 5 6 7 7 8 9 8 7 7 7 8 8 8 8 7 7 7 7 7 7 8 9 10 12 12 11 11 12 10 5 2 1 1 0 0 0
4 4 4 4 4 4 4 4 5 7 8 8 8 7 7 6 7 8 8 8 7 6 5 6 6 6 6 6 7 8 9 9 9 8 10 12 10 6 3 2 1 1 0 0
3 3 3 3 3 3 3 5 6 8 8 8 6 5 6 6 7 8 8 8 7 6 6 6 6 6 5 5 5 6 6 6 6 7 8 9 8 5 3 2 2 1 1 0
2 3 3 3 2 3 4 6 8 8 7 6 5 5 6 5 5 5 6 6 6 6 6 6 6 5 5 4 4 4 4 4 4 4 6 6 5 4 3 2 2 2 1 0
2 2 2 2 3 4 5 7 6 5 4 4 4 6 6 5 4 4 4 4 4 5 5 5 5 5 4 4 3 3 3 3 3 3 3 3 3 2 2 2 2 2 1 1
1 2 2 3 4 5 5 5 4 3 3 2 3 4 5 5 4 4 4 3 3 4 4 4 4 3 3 2 2 2 2 3 2 2 2 2 2 2 2 2 2 2 1 1
1 1 2 3 3 3 3 3 2 2 2 2 2 2 3 4 4 4 4 4 3 3 4 3 3 2 2 1 1 1 1 1 2 2 2 2 2 2 2 2 1 1 1 0
1 1 2 2 2 2 2 1 1 1 1 1 1 1 2 2 3 4 4 4 3 3 3 3 3 3 2 2 1 0 1 1 1 1 1 1 1 1 1 1 1 1 0 0
1 1 2 2 2 2 2 1 1 1 1 1 1 1 1 2 3 3 3 3 2 2 2 2 3 3 3 2 1 1 1 1 1 1 1 1 1 1 1 0 0 0 0 0
2 2 2 2 2 2 2 2 2 1 1 1 1 1 1 2 2 2 2 2 1 1 1 1 2 2 2 2 1 1 1 1 1 1 1 1 0 0 0 0 0 0 0 0
3 2 2 2 2 2 2 2 1 1 1 1 1 1 2 2 2 2 1 1 1 0 0 0 1 1 1 1 1 1 1 1 1 1 1 0 0 0 0 0 0 0 0 0
2 2 2 2 2 1 1 1 1 1 1 1 1 1 1 2 2 2 1 1 0 0 0 0 0 0 0 1 1 1 1 1 1 1 1 0 0 0 0 0 0 0 0 0
2 2 1 1 1 1 1 0 0 1 1 0 0 1 1 1 1 1 1 0 0 0 0 0 0 0 0 1 1 1 1 1 1 1 0 0 0 0 0 0 0 0 0 0
1 1 1 1 1 1 1 0 0 0 0 0 0 0 0 0 0 0 0 0 0 0 0 0 0 0 0 0 1 1 1 0 0 0 0 0 0 0 0 0 0 0 0 0
1 1 1 1 1 1 0 0 0 0 0 0 0 0 0 0 0 0 0 0 0 0 0 0 0 0 0 0 0 0 0 0 0 0 0 0 0 0 0 0 0 0 0 0

GEFSNGP_con_maxscp_168.txt.gz
SCP
0 0 1 1 1 1 1 1 2 3 4 4 3 3 4 6 8 8 8 6 5 4 3 3 3 3 3 2 3 2 2 2 2 2 1 1 1 1 1 1 1 1 0 0
0 0 1 1 2 2 1 2 2 3 4 4 4 4 5 7 9 9 9 7 5 4 4 4 3 3 3 3 3 3 2 2 2 2 2 2 2 1 1 1 1 1 1 1
0 0 1 1 1 2 2 2 3 4 4 4 5 5 6 7 9 10 10 8 7 5 4 5 5 5 5 5 4 3 2 2 2 2 2 2 2 2 1 1 1 1 1 1
0 0 1 1 1 2 2 3 3 4 5 6 7 7 7 7 8 9 10 11 9 7 6 6 6 6 6 6 4 3 2 2 3 3 3 4 3 3 2 2 2 2 2 1
0 0 1 1 1 2 3 3 4 5 6 7 8 7 8 9 8 8 11 14 13 10 8 7 7 8 8 6 4 3 3 3 3 4 5 5 5 4 3 2 2 2 2 2
0 1 1 2 2 2 3 3 4 6 8 8 8 7 8 9 9 10 14 17 16 12 9 7 8 9 9 7 5 4 3 3 3 5 6 7 7 6 5 4 3 3 3 3
0 1 1 2 3 3 3 4 5 7 9 9 8 7 6 7 8 11 15 15 13 11 9 8 9 10 9 7 5 4 4 3 3 4 5 7 8 8 7 5 5 4 4 3
0 1 2 3 4 4 3 4 5 7 8 8 7 6 6 6 7 9 12 11 10 8 8 8 9 10 9 7 5 4 3 3 2 2 4 6 8 10 9 8 7 6 5 4
1 2 2 3 3 3 3 4 4 5 6 7 7 7 7 7 7 8 9 9 9 8 8 8 8 9 8 6 5 4 3 3 2 2 3 4 7 10 12 12 10 8 7 6
3 3 3 3 3 3 4 4 4 5 6 7 8 8 8 8 7 7 7 8 7 6 6 6 7 7 7 6 5 4 4 4 3 3 3 4 5 8 13 15 15 12 10 8
3 3 3 3 3 3 4 5 6 7 7 7 7 8 8 8 6 6 7 8 7 6 6 7 7 7 7 6 6 6 6 5 4 4 4 4 4 6 11 16 17 15 13 11
3 2 2 3 3 3 4 6 8 9 9 8 8 8 8 7 7 7 7 8 8 8 9 9 9 9 9 9 8 7 7 5 4 4 4 3 3 4 8 11 12 11 11 11
2 2 3 4 5 6 6 8 10 11 11 10 9 9 8 7 7 6 5 6 7 8 8 9 9 10 9 9 8 6 5 4 4 3 3 2 2 3 6 7 5 4 4 5
2 3 3 4 7 8 8 11 14 14 12 9 8 8 6 5 5 4 3 4 4 5 6 7 7 7 6 5 5 4 3 3 3 3 2 2 1 2 4 6 5 2 1 1
2 3 3 3 5 6 7 12 15 14 10 7 5 5 4 3 2 2 2 3 3 4 5 6 6 5 3 3 2 2 2 2 2 2 2 2 1 1 3 5 6 4 1 0
2 1 1 1 2 2 3 7 11 10 6 4 3 2 2 2 2 2 2 2 2 2 3 4 4 3 2 2 2 1 1 1 1 1 1 1 1 1 2 3 4 4 1 0
1 1 1 0 1 1 1 3 5 5 3 2 2 1 1 1 2 2 2 1 1 1 2 2 2 1 1 1 1 1 1 1 1 0 0 0 0 1 1 2 3 3 1 0
0 0 0 0 0 1 1 1 2 2 2 1 1 1 1 1 1 1 1 1 1 1 1 1 1 0 0 0 0 0 0 0 0 0 0 0 0 0 1 1 2 1 1 0
1 1 1 1 1 1 1 1 1 1 1 1 1 0 0 0 0 0 0 0 0 0 0 0 0 0 0 0 0 0 0 0 0 0 0 0 0 0 0 0 0 0 0 0
2 2 1 1 1 1 1 1 1 1 0 0 0 0 0 0 0 0 0 0 0 0 0 0 0 0 0 0 0 0 0 0 0 0 0 0 0 0 0 0 0 0 0 0
1 1 1 1 1 1 1 1 1 0 0 0 0 0 0 0 0 0 0 0 0 0 0 0 0 0 0 1 1 0 0 0 0 0 0 0 0 0 0 0 0 0 0 0
1 1 1 1 1 1 1 0 0 0 0 0 0 0 0 0 0 0 0 0 0 0 0 0 0 0 0 0 0 0 0 0 0 0 0 0 0 0 0 0 0 0 0 0
1 1 1 1 1 0 0 0 0 0 0 0 0 0 0 0 0 0 0 0 0 0 0 0 0 0 0 0 0 0 0 0 0 0 0 0 0 0 0 0 0 0 0 0
0 1 1 1 0 0 0 0 0 0 0 0 0 0 0 0 0 0 0 0 0 0 0 0 0 0 0 0 0 0 0 0 0 0 0 0 0 0 0 0 0 0 0 0
0 0 0 0 0 0 0 0 0 0 0 0 0 0 0 0 0 0 0 0 0 0 0 0 0 0 0 0 0 0 0 0 0 0 0 0 0 0 0 0 0 0 0 0
0 0 0 0 0 0 0 0 0 0 0 0 0 0 0 0 0 0 0 0 0 0 0 0 0 0 0 0 0 0 0 0 0 0 0 0 0 0 0 0 0 0 0 0
0 0 0 0 0 0 0 0 0 0 0 0 0 0 0 0 0 0 0 0 0 0 0 0 0 0 0 0 0 0 0 0 0 0 0 0 0 0 0 0 0 0 0 0

GEFSNGP_con_maxscp_174.txt.gz
SCP
0 1 1 1 1 1 1 1 1 1 1 2 2 3 3 2 2 2 2 3 4 3 3 3 2 2 2 2 3 3 2 1 1 1 1 1 1 1 1 1 1 1 1 0
1 1 1 1 1 1 1 1 1 2 2 1 2 2 2 2 2 2 2 3 3 3 3 3 2 2 2 3 3 3 2 1 1 1 1 1 1 1 1 1 1 1 1 1
1 1 1 1 1 1 1 1 2 2 2 1 1 2 2 2 2 2 2 3 3 3 3 3 3 2 3 4 4 3 2 2 2 2 1 1 1 1 1 1 1 1 1 1
0 0 0 1 1 1 1 2 2 2 1 1 1 2 2 2 2 2 3 3 3 4 4 4 3 3 3 3 4 3 2 2 2 2 2 2 2 2 2 2 1 2 2 2
0 0 0 1 1 1 1 1 1 1 1 2 2 2 2 2 2 3 3 4 4 5 6 6 5 3 3 3 3 3 2 2 2 2 2 2 2 2 2 2 2 2 2 3
0 0 0 1 1 1 1 1 1 1 2 2 2 3 3 3 3 3 3 4 4 4 5 5 4 3 3 3 3 2 2 1 1 1 1 1 1 2 2 2 2 2 3 3
0 0 0 1 1 1 1 1 1 2 2 2 3 3 4 4 4 4 4 4 4 4 3 3 3 3 3 3 3 2 2 2 2 1 1 1 1 1 1 1 2 2 2 2
0 0 0 1 1 1 1 1 1 1 2 3 3 4 5 6 6 5 5 4 3 3 3 3 3 3 3 2 2 3 3 2 2 2 1 1 1 1 1 1 1 1 1 1
0 1 1 1 1 1 1 1 2 2 2 3 4 5 6 6 6 6 5 4 4 3 2 2 2 2 2 2 2 3 3 3 2 2 2 1 2 2 2 2 2 1 1 1
1 1 2 2 2 2 2 2 2 2 3 4 5 5 6 6 6 6 5 4 4 3 2 2 2 2 2 2 2 3 3 3 3 2 2 2 2 2 2 3 2 1 1 1
1 2 2 2 2 3 3 4 4 3 3 3 4 5 5 6 7 6 6 4 4 3 3 2 2 2 2 2 3 3 4 3 3 2 2 2 2 2 2 2 1 1 1 1
1 1 1 2 2 3 3 4 4 4 3 3 3 3 4 4 5 5 5 4 3 3 3 3 2 2 3 3 3 4 4 3 3 3 3 3 2 2 1 1 0 0 0 0
1 1 1 2 2 2 3 3 4 4 4 3 2 2 2 2 3 3 3 3 3 3 3 3 3 3 3 4 4 4 4 4 3 4 4 3 2 2 1 0 0 0 0 0
1 2 2 3 3 3 3 3 3 4 3 3 2 1 1 2 2 2 2 2 2 3 3 4 3 3 3 3 3 4 4 3 3 3 3 2 1 1 1 0 0 0 0 0
2 2 3 4 4 4 3 3 3 3 3 2 2 1 1 1 1 1 1 1 1 1 2 3 3 2 2 2 2 2 2 2 2 2 1 1 1 1 0 0 0 0 0 0
3 3 4 4 5 5 5 4 3 2 2 2 2 2 1 1 1 1 1 0 0 1 1 2 1 1 1 1 1 1 1 1 2 2 1 0 0 0 0 0 0 0 0 0
3 3 3 4 4 5 5 4 3 2 1 1 2 2 1 1 1 1 0 0 0 0 1 1 1 0 1 1 0 0 0 1 1 1 0 0 0 0 0 0 0 0 0 0
2 2 2 2 2 2 2 3 2 1 1 1 1 1 1 1 1 0 0 0 0 0 0 0 0 0 0 0 0 0 0 0 0 0 0 0 0 0 0 0 0 0 0 0
1 1 1 1 0 0 1 1 1 1 1 0 0 0 0 0 0 0 0 0 0 0 0 0 0 0 0 0 0 0 0 0 0 0 0 0 0 0 0 0 0 0 0 0
0 0 0 0 0 0 0 0 0 0 0 0 0 0 0 0 0 0 0 0 0 0 0 0 0 0 0 0 0 0 0 0 0 0 0 0 0 0 0 0 0 0 0 0
0 0 0 0 0 0 0 0 0 0 0 0 0 0 0 0 0 0 0 0 0 0 0 0 0 0 0 0 0 0 0 0 0 0 0 0 0 0 0 0 0 0 0 0
0 0 0 0 0 0 0 0 0 0 0 0 0 0 0 0 0 0 0 0 0 0 0 0 0 0 0 0 0 0 0 0 0 0 0 0 0 0 0 0 0 0 0 0
0 0 0 0 0 0 0 0 0 0 0 0 0 0 0 0 0 0 0 0 0 0 0 0 0 0 0 0 0 0 0 0 0 0 0 0 0 0 0 0 0 0 0 0
0 0 0 0 0 0 0 0 0 0 0 0 0 0 0 0 0 0 0 0 0 0 0 0 0 0 0 0 0 0 0 0 0 0 0 0 0 0 0 0 0 0 0 0
0 0 0 0 0 0 0 0 0 0 0 0 0 0 0 0 0 0 0 0 0 0 0 0 0 0 0 0 0 0 0 0 0 0 0 0 0 0 0 0 0 0 0 0
0 0 0 0 0 0 0 0 0 0 0 0 0 0 0 0 0 0 0 0 0 0 0 0 0 0 0 0 0 0 0 0 0 0 0 0 0 0 0 0 0 0 0 0
0 0 0 0 0 0 0 0 0 0 0 0 0 0 0 0 0 0 0 0 0 0 0 0 0 0 0 0 0 0 0 0 0 0 0 0 0 0 0 0 0 0 0 0

GEFSNGP_con_maxscp_180.txt.gz
SCP
0 0 0 0 0 0 0 0 0 1 1 1 2 2 2 2 2 2 2 3 3 4 4 4 5 5 5 4 3 5 9 12 11 8 5 4 4 3 2 2 1 1 1 1
0 0 0 1 0 0 0 0 0 1 1 2 2 2 2 2 2 2 2 3 4 4 5 5 5 5 5 4 4 5 7 9 10 8 5 4 3 3 2 2 2 2 2 1
0 0 1 1 1 1 0 1 1 1 2 2 3 2 2 2 2 3 3 3 4 5 5 5 5 6 6 5 4 4 6 8 8 6 4 3 3 2 2 2 2 2 2 2
0 0 0 1 1 1 1 1 1 2 2 3 3 3 3 3 3 3 3 4 5 5 5 5 6 7 7 7 5 4 5 8 8 5 4 3 2 2 2 2 2 2 2 2
0 0 0 1 1 1 1 1 2 2 2 2 3 3 3 3 4 4 4 4 5 6 6 7 7 7 7 6 4 4 5 7 6 4 3 3 2 2 2 2 1 1 1 1
0 0 0 1 1 1 1 1 2 2 2 2 2 3 3 4 5 5 5 5 7 8 8 8 8 7 5 4 4 4 4 5 4 3 3 3 3 3 3 2 2 2 2 1
0 0 1 1 1 1 1 2 2 3 3 3 3 4 4 5 5 6 6 7 9 10 10 9 8 6 5 5 5 4 4 3 3 3 3 3 4 4 4 3 3 3 3 2
1 1 1 2 2 2 2 3 3 4 4 4 5 5 4 5 5 5 6 8 10 11 11 10 8 6 6 6 6 5 5 4 4 3 4 4 5 5 5 5 4 4 4 3
2 2 2 2 3 3 3 4 4 4 5 5 5 5 5 5 5 6 7 8 9 9 10 9 8 7 7 7 6 6 6 5 4 4 4 5 6 5 5 5 5 5 5 4
3 3 3 3 3 4 4 4 5 5 5 5 5 6 6 6 7 7 8 8 8 8 9 9 8 7 7 6 5 5 5 4 4 4 5 6 6 5 4 5 5 6 6 6
4 4 4 3 4 4 4 5 5 5 5 6 6 6 7 8 8 8 9 8 8 9 9 9 8 8 6 5 4 4 3 3 4 5 5 5 4 4 3 4 4 5 6 6
5 4 4 4 4 4 4 5 6 6 6 6 6 7 7 8 8 8 8 7 7 7 7 7 8 7 6 4 4 4 4 4 4 5 5 4 4 3 3 3 2 2 3 4
5 4 4 4 3 3 3 4 5 6 6 6 6 5 5 5 5 5 5 5 5 5 6 6 7 6 6 5 4 5 5 5 5 5 5 5 5 5 5 4 2 1 1 1
5 5 4 3 2 3 3 4 4 4 4 4 4 3 3 3 3 3 3 3 3 3 4 6 6 7 6 5 4 5 6 6 5 5 5 6 7 7 7 6 5 3 1 0
5 4 3 3 2 2 3 3 3 3 3 3 3 2 2 3 3 2 2 2 2 2 3 5 6 6 5 4 4 4 4 5 4 4 4 5 5 6 6 6 5 4 2 1
4 3 3 2 2 3 3 3 3 3 3 2 2 2 2 2 2 2 2 1 1 2 3 4 4 4 4 3 3 3 3 2 2 2 2 2 2 3 3 3 3 2 1 1
3 3 3 3 4 5 5 5 4 3 3 2 2 2 2 2 2 2 1 1 1 1 2 2 2 2 2 2 2 2 2 1 1 1 1 1 1 1 1 2 1 1 1 0
3 3 4 4 5 5 6 6 5 4 3 2 2 2 1 1 1 1 1 1 1 1 1 1 1 1 2 2 2 2 1 1 1 1 1 0 0 0 0 1 1 1 1 0
3 3 3 4 4 4 5 5 4 3 2 2 2 1 1 1 1 1 1 1 1 1 1 1 1 1 1 1 1 1 1 1 1 1 0 0 0 0 0 0 0 0 0 0
2 2 2 2 2 2 2 2 2 2 2 1 1 1 0 0 0 0 1 1 1 1 1 1 1 1 1 1 1 1 1 0 0 0 0 0 0 0 0 0 0 0 0 0
1 1 1 1 1 1 1 1 1 1 1 1 1 0 0 0 0 0 0 0 0 1 1 1 1 1 1 1 0 0 0 0 0 0 0 0 0 0 0 0 0 0 0 0
1 1 1 1 1 1 1 1 1 1 1 0 0 0 0 0 0 0 0 0 0 1 1 1 1 0 0 0 0 0 0 0 0 0 0 0 0 0 0 0 0 0 0 0
1 1 1 1 1 1 1 1 1 0 0 0 0 0 0 0 0 0 0 0 0 0 0 0 0 0 0 0 0 0 0 0 0 0 0 0 0 0 0 0 0 0 0 0
1 1 1 1 1 1 1 1 0 0 0 0 0 0 0 0 0 0 0 0 0 0 0 0 0 0 0 0 0 0 1 1 0 0 0 0 0 0 0 0 0 0 0 0
0 1 1 1 1 1 1 0 0 0 0 0 0 0 0 0 0 0 0 0 0 0 0 0 0 0 0 0 0 0 0 0 0 0 0 0 0 0 0 0 0 0 0 0
0 0 0 0 0 0 0 0 0 0 0 0 0 0 0 0 0 0 0 0 0 0 0 0 0 0 0 0 0 0 0 0 0 0 0 0 0 0 0 0 0 0 0 0
0 0 0 0 0 0 0 0 0 0 0 0 0 0 0 0 0 1 0 0 0 0 0 0 0 0 0 0 0 0 0 0 0 0 0 0 0 0 0 0 0 0 0 0

GEFSNGP_con_maxscp_186.txt.gz
SCP
0 0 0 0 0 0 0 0 1 2 5 8 9 8 7 7 7 6 5 4 4 6 9 11 11 11 11 11 11 11 10 9 8 7 7 6 6 5 4 3 3 3 3 3
0 0 0 0 0 0 0 0 1 3 6 9 8 7 7 7 6 6 5 4 4 6 8 10 11 11 11 12 12 12 10 9 7 7 6 6 5 4 4 4 3 3 3 3
0 0 0 0 0 0 0 0 1 4 8 10 9 8 8 7 6 5 5 5 5 7 9 10 11 12 12 13 13 13 11 9 7 6 6 5 4 4 4 4 4 4 3 3
0 0 0 0 0 0 1 2 4 6 10 11 11 11 10 8 7 6 6 7 8 9 10 11 12 12 13 14 14 13 11 9 7 7 6 6 5 5 5 5 5 5 4 4
1 0 0 1 1 1 3 6 7 8 10 12 12 12 11 10 9 8 8 9 10 11 12 13 13 14 15 15 15 14 12 10 8 8 8 8 8 8 7 6 5 5 5 5
1 1 1 1 1 2 4 6 7 8 9 10 10 9 9 9 9 9 10 11 12 13 14 15 15 16 16 16 16 14 12 10 9 9 10 10 11 11 10 8 7 6 6 6
1 1 1 1 2 2 4 6 7 7 8 9 9 8 8 8 8 10 12 13 14 15 16 17 18 18 17 17 16 14 12 10 10 11 11 12 12 12 11 10 8 7 6 6
2 2 3 4 4 4 5 7 8 8 9 9 9 8 8 8 8 10 12 14 15 16 17 18 19 19 18 17 15 13 11 11 12 12 11 11 12 12 11 9 8 7 6 6
3 4 6 8 7 7 7 7 8 9 9 8 8 8 9 9 10 11 13 14 15 16 17 17 17 17 17 15 14 13 13 12 11 10 9 9 9 10 10 9 8 8 7 6
5 6 8 9 9 8 7 7 8 8 8 8 8 9 10 12 13 14 15 15 15 15 15 15 15 15 15 15 14 14 14 12 10 8 7 6 7 7 8 8 8 7 6 5
8 9 10 9 8 7 7 8 8 8 8 8 9 11 12 14 16 16 16 15 15 13 12 13 15 16 17 16 15 14 12 9 7 6 5 5 5 5 5 5 5 4 4 3
10 10 10 9 8 7 8 9 9 9 9 10 11 13 14 15 16 15 14 14 12 11 11 14 17 19 19 18 15 12 9 7 5 4 4 4 4 4 4 3 2 1 1 1
11 10 9 9 9 10 10 11 11 11 12 13 14 14 15 15 14 12 10 10 10 10 12 15 17 18 18 16 13 10 7 6 5 4 4 4 4 4 4 3 2 1 1 1
12 10 9 10 11 12 12 13 12 12 13 14 14 14 13 12 10 8 6 6 7 8 9 11 11 12 12 12 10 8 6 5 4 3 3 3 4 3 3 2 2 1 1 1
11 10 9 10 10 11 12 12 12 12 12 13 12 12 11 9 7 5 4 4 4 4 5 5 5 6 7 8 8 6 5 4 3 3 3 3 3 3 2 2 2 1 1 1
8 8 8 8 8 7 8 10 11 12 12 11 11 10 8 7 5 4 4 4 4 3 3 3 3 4 5 6 7 5 4 3 2 3 3 2 2 2 2 2 2 1 1 1
6 7 7 7 6 5 5 7 9 11 11 11 9 8 7 6 5 4 4 4 4 3 3 3 3 3 3 4 5 4 2 2 2 2 2 2 2 2 2 1 1 1 1 1
5 6 7 7 5 5 5 5 7 9 11 11 9 8 7 6 6 5 5 4 3 2 2 2 2 2 2 2 2 2 1 1 1 2 2 3 2 2 1 1 1 1 1 0
3 4 5 5 5 4 5 5 7 9 11 11 10 9 8 7 6 6 5 4 2 1 1 1 1 1 1 1 1 1 1 1 1 2 3 3 2 1 1 1 1 0 0 0
3 3 3 3 4 4 4 4 6 8 10 11 11 9 8 8 7 6 4 3 1 1 1 1 1 1 1 1 0 1 1 1 1 1 2 2 2 1 1 1 0 0 0 0
3 3 3 2 2 2 3 3 4 6 9 10 10 9 8 7 6 4 2 1 1 1 1 0 0 0 0 0 0 0 1 1 1 1 1 1 1 1 1 0 0 0 0 0
4 4 3 2 2 2 2 3 4 6 8 8 8 6 6 4 3 2 1 1 1 1 0 0 0 0 0 0 0 0 0 1 1 1 1 1 1 0 0 0 0 0 0 0
4 4 3 3 3 3 4 5 5 6 6 6 5 4 3 2 1 1 1 1 1 0 0 0 0 0 0 0 0 0 0 1 1 1 1 1 1 0 0 0 0 0 0 0
3 3 3 4 4 5 6 6 6 6 5 4 3 3 2 1 1 1 1 0 0 0 0 0 0 0 0 0 0 0 0 1 1 1 1 1 1 1 0 0 0 0 0 0
3 3 4 4 5 5 6 6 6 5 3 2 2 1 1 1 1 1 1 0 0 0 0 0 0 0 0 0 0 0 0 0 0 1 1 1 2 1 1 1 0 0 0 0
4 4 5 5 4 4 4 4 4 3 2 1 1 1 1 1 1 1 1 0 0 0 0 0 0 0 0 0 0 0 0 0 0 0 1 1 2 2 1 1 0 0 0 0
4 4 5 4 4 4 3 3 3 2 1 1 1 1 1 1 1 1 1 0 0 0 0 0 0 0 0 0 0 0 0 0 0 0 0 0 1 1 1 1 0 0 0 0

GEFSNGP_con_maxscp_192.txt.gz
SCP
0 0 0 0 0 0 0 1 1 2 3 5 5 5 5 6 6 6 5 5 5 6 6 6 6 6 6 6 7 7 6 5 4 3 2 2 2 2 2 3 3 3 3 3
0 0 0 0 0 1 1 1 2 3 4 5 5 6 7 8 7 6 5 5 5 6 6 6 6 7 7 7 7 6 6 5 3 2 2 2 2 2 2 3 3 3 4 4
0 0 0 0 0 1 1 2 2 3 4 6 6 7 8 9 9 8 6 5 5 6 6 5 6 8 9 8 8 8 6 4 3 2 2 2 2 2 3 3 3 4 4 5
0 0 0 0 1 1 2 3 3 4 6 8 9 10 10 10 11 12 10 8 7 7 6 6 6 8 10 10 10 9 6 4 3 2 2 2 2 2 3 3 4 4 5 5
0 0 0 1 1 2 3 4 4 6 9 12 15 15 12 12 14 14 12 11 9 8 7 6 7 10 11 11 10 8 5 3 2 2 2 2 2 2 3 3 4 4 5 5
0 0 1 2 2 3 4 4 5 7 10 14 19 20 16 16 16 15 13 11 9 8 7 6 8 11 13 13 10 7 4 3 2 2 2 3 3 3 3 3 4 4 5 5
0 0 1 3 4 4 4 5 6 7 10 16 20 22 21 20 19 16 11 9 8 7 6 6 7 11 13 12 9 6 5 3 3 3 3 3 3 3 3 3 4 4 4 4
1 1 2 4 5 5 6 7 7 8 13 18 22 25 24 21 19 15 10 8 7 7 6 6 7 9 10 9 7 6 5 5 4 4 4 4 4 4 4 4 4 4 3 3
2 2 3 4 6 6 7 7 9 13 19 24 26 25 21 17 15 12 10 8 8 7 6 5 6 7 8 7 7 7 7 6 5 5 5 4 4 4 5 5 5 4 3 1
4 4 4 6 7 7 7 8 10 16 22 26 25 19 14 13 12 11 10 9 9 8 7 6 6 7 7 8 8 9 8 7 7 6 6 5 4 4 5 5 5 4 2 1
5 5 6 7 9 9 9 10 13 16 20 21 17 14 12 12 12 12 12 12 11 10 9 8 7 8 8 9 11 11 10 9 8 7 6 4 3 3 3 4 4 3 2 1
6 6 7 9 10 12 13 15 15 15 15 14 13 12 12 12 13 13 13 12 11 10 9 8 8 8 9 11 13 13 11 9 8 7 5 3 2 1 1 1 1 1 1 1
6 7 9 11 13 15 17 19 18 15 14 13 12 12 11 11 11 11 11 10 9 9 8 8 8 9 11 13 14 13 11 9 7 5 3 2 1 1 1 0 0 0 0 0
9 11 14 15 16 17 19 21 19 17 15 12 11 10 10 9 8 7 7 6 6 7 7 8 9 10 11 13 13 11 9 7 5 4 3 2 1 1 1 0 0 0 0 0
13 18 24 26 25 22 20 20 19 17 13 10 9 8 8 7 6 5 4 3 3 4 5 6 7 8 9 9 9 7 5 4 4 4 4 3 2 1 1 1 0 0 0 0
15 22 32 33 28 23 19 17 15 13 9 7 6 6 5 5 4 3 2 2 2 2 3 3 4 4 4 4 4 3 3 2 3 3 4 4 3 2 1 1 1 0 0 0
14 18 22 22 17 14 12 11 10 8 6 5 4 4 4 3 2 2 1 1 1 1 1 1 1 1 1 1 1 1 1 1 1 2 3 3 3 2 1 1 0 0 0 0
7 8 8 7 5 4 5 6 5 4 4 4 4 4 3 2 1 1 1 1 1 1 1 1 0 0 0 0 0 0 0 0 0 0 1 2 2 2 1 0 0 0 0 0
2 3 3 4 3 3 2 3 3 3 4 4 4 3 2 2 1 1 1 1 1 0 0 0 0 0 0 0 0 0 0 0 0 0 0 0 1 1 0 0 0 0 0 0
3 3 3 3 3 3 2 2 2 3 4 3 3 2 2 1 1 1 1 1 0 0 0 0 0 0 0 0 0 0 0 0 0 0 0 0 0 0 0 0 0 0 0 0
2 3 3 3 3 3 2 2 3 4 4 3 3 2 1 1 1 0 0 0 0 0 0 0 0 0 0 0 0 0 0 0 0 0 0 0 0 0 0 0 0 0 0 0
2 2 2 2 2 2 2 2 2 3 3 3 3 2 1 1 0 0 0 0 0 0 0 0 0 0 0 0 0 0 0 0 0 0 0 0 0 0 0 0 0 0 0 0
1 1 2 2 1 1 2 1 1 2 2 3 3 2 2 1 0 0 0 0 0 0 0 0 0 0 0 0 0 0 0 0 0 0 0 0 0 0 0 0 0 0 0 0
1 1 1 1 1 1 1 1 1 1 1 2 2 2 2 1 0 0 0 0 0 0 0 0 0 0 0 0 0 0 0 0 0 0 0 0 0 0 0 0 0 0 0 0
1 1 1 1 1 1 1 1 1 1 1 1 2 2 2 1 0 0 0 0 0 0 0 0 0 0 0 0 0 0 0 0 0 0 0 0 0 0 0 0 0 0 0 0
1 1 1 1 1 0 0 0 0 0 1 1 1 1 1 0 0 0 0 0 0 0 0 0 0 0 0 0 0 0 0 0 0 0 0 0 0 0 0 0 0 0 0 0
0 0 0 1 1 0 0 0 0 0 0 0 0 0 0 0 0 0 0 0 0 0 0 0 0 0 0 0 0 0 0 0 0 0 0 0 0 0 0 0 0 0 0 0

GEFSNGP_con_maxscp_198.txt.gz
SCP
0 0 0 0 0 0 0 0 0 0 1 2 2 3 4 3 3 3 4 5 4 4 4 3 3 3 3 3 4 3 3 2 2 1 1 1 1 1 1 1 1 1 1 1
0 0 0 0 0 0 0 0 0 1 1 2 3 4 4 3 3 3 4 5 5 5 4 3 3 3 3 3 4 4 3 3 2 2 1 1 1 1 1 1 1 1 1 1
0 0 0 0 1 1 1 1 1 1 2 2 3 4 4 4 4 4 4 5 6 5 5 4 4 4 3 4 5 5 4 3 2 2 1 1 1 1 1 1 1 1 1 1
0 0 0 0 1 1 1 2 2 2 2 3 4 4 3 3 4 4 4 6 6 6 5 6 5 5 4 5 6 6 5 4 3 2 1 1 1 1 1 1 1 1 1 1
0 0 0 0 1 1 2 2 2 2 4 5 5 5 4 3 4 5 5 6 7 7 6 6 6 6 5 6 7 7 6 5 3 2 1 1 1 1 1 1 1 1 1 1
0 0 0 1 1 1 1 2 2 3 5 6 5 4 3 3 4 5 6 7 8 8 7 6 6 5 5 6 8 8 7 5 3 2 1 1 1 1 1 1 1 1 1 1
0 0 0 1 1 1 1 1 2 4 5 5 4 3 3 3 4 5 7 8 9 8 6 5 4 4 4 5 7 8 7 5 4 3 2 2 2 1 1 1 1 1 2 2
0 0 0 1 1 1 1 2 3 4 4 4 3 3 3 4 5 7 8 9 9 8 6 5 4 3 3 4 6 7 6 5 4 3 3 3 2 2 2 1 1 2 2 2
0 1 1 1 1 1 2 3 5 5 4 3 3 3 3 4 6 9 11 11 9 7 5 4 3 3 3 4 5 6 5 4 4 4 4 3 3 2 2 1 1 1 2 2
1 2 2 2 2 2 3 4 6 5 4 3 3 3 3 5 9 12 13 11 8 6 5 4 3 3 3 4 5 4 4 4 4 4 4 4 3 2 2 2 1 1 1 1
2 2 3 3 3 3 4 5 5 5 4 4 4 5 5 7 11 13 12 9 6 5 4 4 4 3 4 4 4 4 4 5 5 5 4 4 3 2 1 1 1 1 1 1
2 2 3 3 3 4 4 4 4 4 4 5 6 6 7 9 11 11 9 7 5 4 4 4 4 4 4 4 5 6 6 6 6 6 5 4 2 1 1 1 1 1 0 0
2 2 3 3 4 4 4 4 4 4 5 6 7 8 8 9 10 9 8 6 5 5 4 4 4 4 4 5 6 7 7 7 7 7 5 3 1 1 1 0 0 0 0 0
2 2 3 3 4 4 4 4 4 5 7 8 9 9 9 9 9 9 9 8 6 6 5 4 4 4 4 6 7 8 8 8 8 6 4 2 1 0 0 0 0 0 0 0
2 2 3 3 4 4 5 5 6 6 8 10 10 10 9 9 8 7 8 7 7 6 6 5 4 3 4 6 7 8 8 7 6 4 2 1 0 0 0 0 0 0 0 0
2 2 3 4 4 5 5 5 6 7 9 11 12 10 9 8 7 5 5 6 6 6 6 5 4 4 5 6 7 7 7 5 3 2 1 0 0 0 0 0 0 0 0 0
2 2 3 4 4 5 5 5 5 7 10 12 12 10 8 7 5 4 4 4 4 5 5 4 4 5 6 7 7 5 3 2 1 0 0 0 0 0 0 0 0 0 0 0
2 2 2 2 3 4 4 4 4 6 8 9 9 7 6 5 4 3 3 3 3 3 3 3 4 5 5 5 4 2 1 0 0 0 0 0 0 0 1 1 1 0 0 0
2 2 2 1 2 2 3 3 3 4 4 5 5 4 4 3 3 2 2 2 2 2 1 1 2 2 3 2 1 0 0 0 0 0 0 0 0 0 0 0 0 0 0 0
1 1 1 1 1 1 2 2 2 2 2 2 2 3 3 2 2 1 1 1 1 1 1 0 0 0 0 0 0 0 0 0 0 0 0 0 0 0 0 0 0 0 0 0
1 1 1 1 1 1 1 2 2 1 1 2 2 2 2 2 1 1 0 0 0 1 1 0 0 0 0 0 0 0 0 0 0 0 0 0 0 0 0 0 0 0 0 0
1 1 1 1 1 0 1 1 1 1 1 1 2 2 2 2 1 1 0 0 0 0 0 0 0 0 0 0 0 0 0 0 0 0 0 0 0 0 0 0 0 0 0 0
1 1 1 0 0 0 0 0 0 0 0 1 2 2 3 2 2 1 0 0 0 0 0 0 0 0 0 0 0 0 0 0 0 0 0 0 0 0 0 0 0 0 0 0
0 0 0 0 0 0 0 0 0 0 0 1 1 2 3 3 2 1 1 0 0 0 0 0 0 0 0 0 0 0 0 0 0 0 0 0 0 0 0 0 0 0 0 0
0 0 0 0 0 0 0 0 0 0 0 1 1 2 2 3 3 2 1 1 0 0 0 0 0 0 0 0 0 0 0 0 0 0 0 0 0 0 0 0 0 0 0 0
0 0 0 0 0 0 0 0 0 0 0 0 1 1 1 2 2 2 1 1 0 0 0 0 0 0 0 0 0 0 0 0 0 0 0 0 0 0 0 0 0 0 0 0
0 0 0 0 0 0 0 0 0 0 0 0 0 1 1 1 2 2 1 1 0 0 0 0 0 0 0 0 0 0 0 0 0 0 0 0 0 0 0 0 0 0 0 0

GEFSNGP_con_maxscp_204.txt.gz
SCP
0 0 0 0 0 0 0 0 0 1 1 2 2 3 4 5 4 4 5 5 5 7 8 7 8 8 7 5 4 3 4 4 5 5 6 6 6 6 5 4 3 2 2 2
0 0 0 0 0 1 1 1 1 1 1 2 2 3 5 5 5 4 4 6 7 9 9 8 8 8 7 5 4 4 5 5 5 5 6 6 6 6 5 4 3 3 3 3
0 0 0 0 1 1 1 1 1 2 2 2 2 3 5 5 5 4 5 6 8 9 10 9 8 8 7 6 6 6 6 7 6 6 6 5 5 5 5 5 4 3 3 3
0 0 0 1 1 1 1 1 2 2 3 3 3 3 4 5 5 5 5 6 7 8 8 8 8 9 9 8 7 7 7 8 7 6 6 5 5 5 5 5 5 4 3 2
0 0 0 0 1 1 1 1 1 2 3 4 4 4 4 5 5 5 5 5 6 7 7 7 9 10 11 10 9 8 8 9 8 7 7 6 5 5 5 5 5 4 3 3
0 0 0 1 1 1 1 1 1 2 3 3 4 4 4 5 6 6 5 5 5 5 6 7 9 11 12 11 9 7 7 8 8 8 7 6 5 5 5 5 5 5 5 5
0 0 0 1 1 1 1 1 2 2 3 3 4 4 5 6 7 6 5 4 4 4 6 7 9 11 11 10 7 6 7 8 8 8 7 6 5 5 5 5 5 5 5 5
0 0 1 2 2 2 2 3 3 3 3 4 5 6 7 8 8 7 6 4 4 4 6 7 8 9 9 8 7 6 7 8 9 7 6 5 5 5 5 4 4 5 5 5
1 1 2 3 3 3 3 4 4 3 4 4 6 7 8 8 8 7 6 5 5 5 7 9 9 9 9 9 8 7 8 9 8 6 5 4 4 4 4 4 4 4 4 4
2 2 3 3 3 3 4 4 4 4 4 4 6 7 8 9 8 7 6 6 6 6 8 9 9 10 11 11 9 8 8 8 7 5 4 4 5 5 5 4 4 4 4 4
3 3 3 3 3 3 4 4 5 5 4 5 6 8 9 10 9 8 7 7 7 7 8 8 8 10 12 13 10 8 7 6 5 5 5 5 5 5 5 4 4 3 3 3
5 4 4 4 4 4 4 5 6 6 6 7 8 9 10 10 9 8 7 7 7 8 9 8 8 9 10 11 10 8 6 5 5 6 6 7 7 6 5 3 2 2 2 2
6 5 5 5 5 5 5 5 6 7 7 7 7 8 8 8 8 8 8 7 6 8 9 8 7 7 8 8 8 7 5 5 6 7 8 8 8 7 6 3 2 1 1 1
6 6 6 6 6 5 5 5 5 5 5 5 5 5 5 5 6 7 7 7 7 7 7 7 6 7 6 6 7 6 5 6 7 9 9 8 8 7 6 4 2 1 0 0
5 5 6 6 6 6 5 4 4 4 4 4 4 4 4 5 6 7 7 7 7 7 7 6 6 6 6 6 6 6 6 6 7 8 8 7 6 6 5 3 3 2 1 1
4 4 5 6 6 6 5 4 4 3 4 4 4 4 4 5 6 6 6 6 7 7 6 6 7 8 8 7 7 8 8 7 7 7 7 6 5 4 4 3 3 2 1 1
3 3 4 4 5 5 5 4 4 4 3 4 5 5 5 5 6 6 6 6 7 7 7 7 8 10 11 10 10 10 9 8 8 7 7 6 5 4 3 3 3 2 2 2
2 3 3 3 4 4 5 5 4 4 4 4 4 5 5 5 6 6 5 5 7 9 9 9 10 13 14 13 12 11 10 9 8 7 6 5 4 3 3 2 2 2 2 1
2 2 2 3 3 4 5 5 4 4 4 4 4 4 4 5 5 6 5 5 7 9 9 9 10 13 13 12 10 9 8 6 5 4 3 2 2 2 2 1 1 1 1 1
2 2 2 3 3 4 5 5 5 5 5 5 5 4 5 5 6 6 6 5 6 7 6 6 8 9 9 7 6 5 4 3 2 2 1 1 1 1 1 0 0 0 0 0
3 3 3 3 4 5 6 6 6 6 6 6 6 6 6 7 7 6 5 5 5 5 4 3 4 5 5 3 3 3 2 1 1 1 1 1 1 0 0 0 0 0 0 0
3 3 4 4 5 6 7 7 6 6 5 5 5 6 7 6 6 5 5 5 4 4 3 3 3 3 2 2 2 2 2 1 1 1 1 1 0 0 0 0 0 0 0 0
4 4 5 5 6 7 7 6 5 4 4 4 4 4 4 4 3 3 3 3 3 3 3 3 2 1 1 1 2 2 2 2 1 1 1 1 0 0 0 0 0 0 0 0
4 4 4 5 6 6 5 5 4 3 3 2 2 2 2 2 2 2 2 3 2 2 2 2 1 0 0 1 2 2 2 2 2 1 1 1 0 0 0 0 0 0 0 0
4 4 4 4 4 4 4 3 3 3 2 2 2 2 2 2 1 2 2 2 2 2 2 2 1 0 0 1 2 2 2 2 2 2 1 1 1 0 0 0 0 0 0 0
3 3 3 3 3 3 2 2 2 2 2 2 2 2 2 2 1 1 2 2 2 2 2 1 1 1 1 1 1 1 2 2 2 2 1 1 1 0 0 0 0 0 0 0
3 3 3 3 3 2 2 2 2 2 2 2 2 2 2 2 2 2 1 1 1 1 1 2 1 1 1 1 1 1 1 2 2 2 2 1 1 0 0 0 0 0 0 0

GEFSNGP_con_maxscp_210.txt.gz
SCP
0 0 0 0 0 0 0 1 2 3 3 3 4 6 6 5 5 6 6 7 9 12 13 12 10 9 9 8 8 8 7 6 6 6 6 7 9 10 9 8 8 8 7 6
0 0 0 0 0 1 1 1 2 2 3 3 5 6 7 6 6 6 6 7 10 13 14 12 12 12 11 10 9 8 6 5 6 6 8 9 10 10 9 8 8 8 7 6
0 0 0 0 1 1 1 1 2 3 3 3 5 7 9 9 9 9 8 10 13 15 16 15 15 15 12 10 9 7 6 5 5 7 9 12 13 12 10 8 8 7 6 6
0 0 0 1 1 1 1 2 3 3 3 3 5 7 9 11 11 12 13 14 16 17 19 19 18 15 12 11 9 7 6 5 5 7 10 14 17 15 12 9 7 6 6 5
0 0 0 1 1 1 1 2 3 4 4 4 5 6 7 10 12 14 17 18 17 16 19 19 16 14 13 12 10 8 7 7 6 7 9 15 20 19 15 10 7 5 5 5
1 1 1 1 1 1 1 2 4 6 6 5 5 5 8 12 15 17 18 16 14 15 16 15 13 14 14 12 10 9 9 8 7 7 8 14 20 21 16 10 7 5 4 4
1 1 1 1 1 1 2 3 5 7 8 7 7 7 11 17 19 18 15 14 13 15 17 15 14 14 14 12 10 10 11 10 9 8 8 11 18 20 16 10 6 5 4 3
1 1 2 2 3 4 4 5 5 7 9 10 11 13 17 22 21 18 16 16 16 18 18 18 16 14 13 11 11 11 12 12 11 10 8 10 15 18 14 8 5 4 3 3
2 2 3 3 5 7 8 7 6 6 9 12 14 18 23 24 21 19 18 18 17 16 17 17 16 14 12 11 11 13 14 15 15 12 10 11 14 14 10 6 4 4 4 4
3 4 4 4 6 8 10 9 6 6 8 11 17 24 26 24 20 18 16 15 14 15 15 17 16 14 12 13 14 16 18 18 17 15 13 12 11 9 6 5 4 4 4 4
5 5 4 4 6 7 9 8 7 7 8 14 24 28 24 19 16 14 13 13 14 16 18 19 18 16 14 15 17 18 20 19 16 14 13 10 8 6 4 4 4 4 4 5
8 6 5 4 5 6 7 8 7 8 10 17 25 25 18 13 11 11 11 12 14 17 19 20 19 16 14 16 18 20 21 18 14 11 9 8 6 5 4 3 3 3 4 4
8 7 5 5 4 5 7 8 9 11 13 14 16 15 11 9 9 9 9 10 12 14 16 18 17 15 14 16 19 20 19 15 11 8 7 6 7 6 5 3 3 2 2 2
8 8 6 6 7 8 10 12 11 12 12 10 8 8 8 9 8 8 7 8 9 10 12 14 14 12 12 15 18 17 14 10 8 7 6 7 7 7 6 6 5 4 2 1
10 9 9 11 14 14 14 14 11 10 9 8 7 7 8 10 10 9 7 7 7 8 10 11 11 10 11 13 16 14 11 8 7 7 7 8 9 9 8 8 8 7 5 2
9 9 11 17 18 15 13 12 10 8 7 6 6 6 7 9 9 9 8 8 8 8 9 10 10 10 10 13 16 15 11 7 6 7 8 10 12 11 10 10 10 10 8 5
7 7 9 12 13 10 9 9 8 7 6 6 6 6 7 7 7 6 6 7 8 8 8 10 10 10 10 13 16 15 11 8 6 8 12 14 14 12 11 10 10 10 8 6
5 6 6 7 7 7 6 6 6 6 6 5 6 6 7 6 5 4 5 6 7 6 7 7 9 9 10 13 15 14 12 9 9 13 16 16 14 12 10 8 8 8 7 5
4 4 5 5 6 6 6 5 5 6 6 6 6 6 6 6 5 4 5 6 5 5 5 5 6 8 10 12 14 14 13 13 15 18 18 15 11 9 7 6 6 6 5 4
3 4 4 5 5 5 6 6 6 7 8 8 7 7 6 6 5 4 5 5 5 4 4 4 6 8 11 12 13 14 15 17 19 19 16 11 9 7 6 6 5 4 3 3
3 3 4 4 5 5 5 6 7 8 9 9 9 7 6 5 4 4 4 4 4 4 4 5 6 8 10 12 13 12 14 17 17 15 11 8 6 5 4 4 3 2 1 1
4 4 4 5 5 6 6 6 6 6 8 9 8 7 6 5 4 3 3 3 4 4 5 5 6 7 9 11 12 11 11 11 10 9 7 5 4 3 3 2 1 1 1 0
6 6 6 6 6 7 8 7 6 7 9 9 9 8 6 5 4 3 3 3 3 3 4 4 4 5 7 9 10 8 7 6 5 4 4 3 3 3 2 2 1 1 1 1
8 7 7 6 7 9 9 9 9 10 10 10 9 7 6 5 4 4 3 2 2 2 2 2 2 3 5 6 6 5 4 4 4 4 4 4 4 4 4 3 3 2 2 1
7 7 6 6 8 9 9 8 8 8 8 7 6 5 4 4 4 3 3 2 1 1 1 1 1 2 3 4 4 4 3 3 4 4 4 4 4 4 4 4 4 4 3 3
5 6 6 7 8 8 6 5 5 4 4 4 3 3 3 3 3 3 3 2 1 1 1 1 1 1 2 2 3 3 3 3 4 4 3 3 3 3 3 3 3 4 4 3
4 5 7 7 7 6 4 3 3 2 2 2 2 2 2 2 2 2 2 2 1 1 1 1 1 1 2 2 2 3 3 3 3 3 3 3 3 3 2 2 3 3 3 3

GEFSNGP_con_maxscp_216.txt.gz
SCP
0 0 1 1 1 1 2 2 3 4 4 4 5 6 6 7 7 8 8 7 5 5 4 4 6 8 8 6 5 5 4 3 3 3 2 3 3 4 6 6 5 3 2 2
0 0 1 1 1 2 2 3 3 4 4 4 4 5 6 7 8 8 8 7 6 5 5 7 9 9 9 7 6 5 4 3 3 3 3 3 3 4 6 7 6 4 2 1
0 1 1 1 1 2 3 3 3 4 4 3 4 5 6 7 7 7 6 6 6 6 7 10 12 10 9 8 7 5 3 2 2 2 2 2 3 4 5 7 7 5 2 1
0 1 1 1 1 2 2 3 3 4 4 5 7 8 7 7 6 6 7 7 8 9 11 13 12 10 9 8 7 5 3 2 2 2 2 2 2 3 4 6 7 6 3 2
0 1 1 1 1 2 2 3 3 4 5 8 10 11 9 7 7 8 8 9 12 14 14 13 10 9 9 9 7 6 4 3 3 3 3 3 3 3 4 5 6 6 4 2
0 1 1 1 2 2 2 3 3 4 6 8 9 9 9 8 8 8 8 9 11 13 13 11 10 10 11 10 9 7 6 4 4 4 4 4 4 4 3 4 5 6 4 3
0 0 1 2 3 3 2 3 3 4 6 8 8 8 8 9 9 8 7 7 8 9 10 9 10 11 11 10 8 7 6 5 4 4 4 4 4 4 4 3 4 5 5 4
0 1 1 3 3 3 2 3 3 4 6 8 9 9 9 9 8 7 6 6 6 7 7 8 8 9 9 7 6 6 5 4 5 5 5 5 5 4 4 4 4 5 5 4
1 2 2 3 3 3 3 3 3 4 6 8 9 10 10 8 7 6 6 5 5 6 6 6 7 7 6 4 4 5 5 5 6 7 7 7 6 6 6 5 4 4 4 4
3 3 3 3 3 2 2 3 3 4 5 7 8 9 10 10 7 6 5 5 4 4 4 5 6 6 5 3 4 5 6 7 8 8 8 8 8 7 7 6 5 4 4 3
3 3 3 3 3 2 2 3 4 4 5 8 9 9 11 11 9 6 5 4 4 4 4 4 5 5 5 4 5 7 9 10 10 10 9 9 7 5 5 5 3 3 3 3
2 2 2 2 3 3 4 5 6 7 8 10 10 11 13 13 11 8 6 5 4 4 4 4 5 5 5 5 7 10 12 12 10 9 9 9 6 4 3 2 2 1 1 2
2 2 2 3 5 7 10 11 11 10 10 11 12 13 15 15 14 11 8 6 5 5 5 6 6 7 7 7 8 10 12 10 8 7 8 8 6 5 3 2 1 1 1 1
3 3 3 5 9 14 17 17 15 13 12 12 12 13 14 15 14 12 10 8 7 7 7 8 9 9 9 8 7 8 8 6 5 5 6 7 7 7 6 4 3 2 1 1
10 9 8 9 13 16 18 17 15 13 13 13 14 13 12 12 12 11 9 8 8 8 8 9 10 10 9 7 6 5 4 3 3 4 4 5 7 8 7 7 6 5 3 2
18 18 17 15 16 15 14 13 11 10 11 14 14 12 10 9 8 8 7 7 7 7 7 7 8 7 6 5 4 4 3 2 2 3 3 4 6 7 8 8 9 8 5 4
16 18 19 17 16 14 12 10 8 7 8 11 11 8 6 5 4 4 4 4 4 5 5 5 5 5 4 4 4 3 3 2 1 2 3 3 4 6 7 9 10 9 7 5
9 11 12 12 13 13 11 9 7 6 6 7 7 5 3 3 3 3 2 2 2 3 4 3 3 3 3 3 3 3 3 2 2 2 3 4 4 5 7 9 10 10 6 4
4 5 6 7 9 11 11 9 7 7 6 6 5 4 3 3 3 2 2 1 1 2 2 2 2 2 2 2 3 3 3 3 2 3 4 4 5 6 7 10 10 9 6 3
7 6 5 6 8 11 12 10 9 8 6 5 4 4 3 3 3 3 2 1 1 1 1 1 1 1 1 2 2 3 3 4 4 4 4 5 6 7 9 10 9 8 5 4
13 10 7 7 9 11 13 12 10 8 6 5 4 4 3 3 3 3 2 1 0 0 0 1 1 1 1 1 2 2 3 4 5 5 5 5 7 8 10 9 8 6 4 3
16 12 9 9 9 10 12 11 9 7 5 4 4 3 3 3 3 2 1 1 0 0 0 0 1 1 1 2 2 2 3 5 6 6 6 6 8 10 9 7 6 4 2 2
11 11 10 9 9 9 10 9 7 6 4 4 3 3 3 3 3 2 1 1 0 0 0 0 0 1 1 2 2 3 3 4 5 6 6 7 8 9 7 5 3 2 1 1
6 7 7 8 8 7 7 7 6 5 4 3 3 3 3 3 2 2 1 1 0 0 0 0 0 0 1 2 2 3 3 4 4 5 6 6 7 6 4 2 1 1 0 0
5 5 5 5 6 5 4 4 4 4 4 3 3 3 3 3 2 2 1 1 0 0 0 0 0 0 1 1 2 2 2 3 4 5 6 7 6 5 3 1 1 1 1 1
6 5 4 4 4 3 3 3 4 4 3 3 3 3 3 2 2 2 1 1 0 0 0 0 0 1 1 1 1 1 1 3 5 6 7 7 6 4 2 2 1 1 1 1
7 6 4 3 3 2 2 2 3 3 3 3 3 3 2 2 1 1 1 0 0 0 0 0 0 0 0 0 0 0 1 3 6 7 8 7 5 3 2 1 1 1 2 2

GEFSNGP_con_maxscp_222.txt.gz
SCP
1 1 1 1 1 1 1 1 1 2 2 2 2 2 2 2 2 2 2 2 3 3 3 3 3 2 3 5 6 4 3 3 3 2 1 1 1 1 1 1 1 2 2 2
2 1 1 1 1 1 1 1 2 2 2 1 1 1 1 2 2 2 2 3 3 4 4 4 4 3 4 6 6 4 3 4 3 2 1 1 1 1 1 1 1 2 2 2
1 1 1 1 1 1 1 1 2 2 1 1 1 1 1 1 1 2 2 3 4 4 5 5 4 4 5 6 5 4 4 4 4 2 1 1 1 1 1 1 1 1 1 2
1 0 1 1 1 1 1 1 1 2 2 2 2 2 2 2 1 2 2 3 3 4 5 5 4 4 5 5 5 4 4 4 4 2 2 1 2 2 1 1 1 1 1 1
0 0 1 1 1 1 1 1 1 2 2 3 2 2 2 2 2 2 2 3 3 3 4 4 4 4 5 5 5 5 4 4 3 3 2 2 2 2 2 1 1 1 1 1
0 0 1 1 1 1 1 1 2 2 3 3 2 2 2 2 2 2 2 3 3 2 2 3 4 5 6 6 6 5 5 5 5 5 3 3 3 3 2 2 2 1 1 1
0 0 0 0 1 1 1 1 2 3 3 3 3 3 2 2 2 2 2 3 3 3 2 3 4 5 6 6 6 6 6 8 8 6 4 3 3 3 3 3 2 2 2 2
0 0 0 0 1 1 1 1 2 3 3 3 3 4 4 3 2 2 2 2 3 3 4 4 4 5 5 6 6 6 7 8 8 5 4 3 3 3 3 3 3 3 4 4
0 0 0 0 1 1 1 2 2 2 3 3 3 4 4 4 3 2 2 2 2 3 5 5 5 5 5 5 6 6 6 6 5 4 4 4 3 3 3 3 4 4 5 6
1 1 1 1 1 2 2 3 3 3 3 3 3 3 4 4 3 2 2 2 2 3 4 5 5 5 5 5 5 5 4 4 3 3 4 4 4 3 3 4 4 5 5 6
1 1 1 1 1 2 3 3 3 3 3 3 2 2 2 2 2 2 2 2 2 3 3 3 4 4 5 5 5 4 3 3 3 3 4 5 4 4 4 4 4 4 4 4
1 1 1 1 1 2 3 3 4 3 3 3 2 2 2 2 2 2 2 3 3 2 2 2 2 3 4 4 4 3 3 3 4 4 5 5 5 4 3 3 2 2 2 2
1 1 1 2 2 2 2 3 3 3 3 2 2 2 2 2 2 2 3 4 3 2 1 1 2 3 4 4 3 3 3 4 5 6 6 5 4 3 3 2 1 1 1 1
1 2 4 5 4 3 3 3 3 3 2 2 2 2 2 2 2 2 3 4 3 2 2 2 3 3 4 4 4 3 4 6 7 7 6 4 3 3 2 3 3 3 2 1
2 5 8 10 8 5 5 4 4 3 3 3 3 3 3 3 3 3 3 4 3 3 2 3 3 3 4 4 4 4 5 6 6 6 4 3 3 2 2 2 4 4 4 3
7 9 12 12 9 7 6 5 4 4 4 4 4 4 4 3 3 3 3 3 3 3 3 3 3 3 3 4 4 4 4 4 5 5 4 3 2 1 1 1 3 4 5 5
12 13 14 12 9 6 6 5 5 5 6 6 5 4 4 4 4 3 3 3 3 2 2 2 2 2 2 3 4 4 3 3 3 4 4 3 2 1 1 1 1 3 4 5
12 12 11 9 7 6 6 6 7 6 6 5 5 5 5 5 4 4 3 3 2 2 1 1 1 1 1 1 2 3 2 2 2 2 2 2 2 1 1 0 0 1 2 3
8 8 7 6 6 5 6 6 6 5 5 4 4 5 5 5 4 4 3 3 2 1 1 0 0 0 0 0 1 1 1 1 2 2 2 2 1 1 1 1 0 0 1 2
6 6 6 6 5 5 5 4 4 4 3 3 4 5 5 4 3 2 2 2 1 1 0 0 0 0 0 0 0 0 1 1 1 1 1 1 1 1 1 1 1 1 1 1
4 5 6 6 6 5 5 4 3 3 3 3 4 5 5 4 2 1 1 1 0 0 0 0 0 0 0 0 0 0 1 1 1 1 1 1 1 1 1 1 1 1 1 1
3 4 5 6 6 5 5 4 4 4 3 3 4 6 5 4 2 1 1 0 0 0 0 0 0 0 0 0 0 0 1 1 1 1 1 1 1 1 1 1 1 1 2 3
2 2 4 5 5 5 5 5 4 4 4 5 6 6 5 3 2 1 1 0 0 0 0 0 0 0 0 0 0 1 1 1 1 1 1 1 0 0 0 0 0 1 3 4
2 2 3 4 5 4 4 4 4 4 5 6 6 5 4 3 2 1 1 0 0 0 0 0 0 0 0 0 0 1 1 1 1 1 1 1 0 0 1 1 1 3 4 5
2 2 2 3 4 4 4 4 4 5 6 6 5 4 3 2 1 1 0 0 0 0 0 0 0 0 0 0 0 0 0 1 1 1 1 1 1 1 1 2 3 4 4 4
4 3 3 3 4 3 3 4 4 6 7 6 4 3 2 1 1 1 0 0 0 0 0 0 0 0 0 0 0 0 0 0 0 0 0 0 1 1 1 2 2 3 3 3
4 4 4 5 4 3 3 3 5 6 6 5 3 1 1 1 1 0 0 0 0 0 0 0 0 0 0 0 0 0 0 0 0 0 0 0 0 1 1 1 1 1 2 2

GEFSNGP_con_maxscp_228.txt.gz
SCP
1 1 1 1 1 1 1 1 1 2 3 3 2 2 2 2 3 4 5 5 5 5 4 3 3 3 4 4 5 8 10 8 4 3 3 3 4 5 5 5 4 3 2 3
1 1 1 1 1 1 1 1 1 2 3 3 2 2 2 2 3 3 4 5 6 5 5 4 4 4 4 5 7 9 8 6 3 3 3 4 5 5 6 5 4 3 3 3
1 1 1 1 1 1 1 1 1 2 3 3 3 2 2 2 2 2 3 4 5 5 6 6 5 5 5 6 8 8 7 5 4 3 3 5 6 7 6 5 4 3 3 3
1 1 1 1 1 1 1 1 2 2 3 3 3 3 2 2 2 2 2 3 3 4 5 5 6 6 6 6 7 7 8 8 7 6 6 6 7 7 6 5 4 3 3 2
1 1 1 1 1 1 1 1 2 2 3 3 3 3 3 3 3 3 3 4 4 4 4 4 6 8 8 7 6 7 9 13 14 13 10 8 7 7 6 4 3 3 2 2
1 1 1 1 1 1 1 1 2 2 3 3 4 3 4 4 3 4 4 4 4 4 5 5 7 9 10 8 6 6 9 14 17 15 11 8 7 5 4 4 3 3 2 2
1 1 1 1 1 1 2 2 2 3 3 4 4 4 5 5 4 4 5 5 4 5 6 7 8 10 11 10 8 7 9 11 12 11 8 6 5 4 4 4 4 3 3 3
1 1 1 2 2 2 2 3 3 4 4 4 4 5 6 6 5 4 4 4 4 5 7 8 9 10 10 10 9 9 8 7 7 6 5 5 4 5 5 5 4 3 3 3
2 2 2 2 2 3 3 4 5 5 4 4 4 5 6 7 6 4 4 5 5 6 8 9 11 13 12 11 10 9 7 6 6 6 5 5 5 5 5 5 4 4 3 3
2 2 2 2 2 3 4 5 6 6 5 5 5 5 6 7 6 5 4 5 5 7 8 10 12 15 14 11 9 8 7 6 6 5 5 5 5 6 5 5 5 4 4 4
2 2 2 2 3 4 5 6 6 7 7 7 7 6 6 6 5 4 4 4 5 6 7 8 10 11 11 9 7 7 6 6 5 5 5 5 6 6 5 5 4 4 4 4
2 2 2 3 3 4 5 5 6 6 7 7 7 6 6 6 5 4 4 4 5 6 6 7 6 6 7 7 7 5 5 5 5 5 5 5 6 6 5 4 3 3 3 3
3 3 3 4 4 4 4 4 5 6 5 5 6 5 5 4 5 5 5 5 5 5 6 6 6 6 7 8 6 5 5 5 6 5 5 5 6 6 5 3 2 2 1 1
3 4 4 5 5 5 5 4 5 5 5 4 4 4 4 4 5 6 6 5 5 5 5 6 6 6 7 8 7 5 4 5 5 5 5 5 6 6 6 4 3 2 1 1
3 4 4 5 5 5 5 4 4 4 4 4 4 3 3 3 4 5 5 5 5 4 5 6 7 7 7 8 7 6 4 5 5 5 6 6 6 5 6 5 4 3 2 2
3 3 4 5 5 4 4 3 3 3 4 4 3 3 3 3 3 4 4 4 4 4 5 6 7 6 6 8 8 6 5 4 5 6 6 5 4 4 4 5 5 4 3 2
2 3 4 5 5 4 3 3 3 3 3 3 3 3 3 3 3 4 4 4 4 5 6 7 7 6 5 6 7 7 5 4 4 5 5 4 3 2 3 4 4 3 2 2
2 3 4 5 5 4 4 3 3 4 4 4 4 4 4 4 4 4 5 4 5 6 6 6 5 5 5 5 5 5 5 4 4 4 4 3 2 2 2 3 3 2 2 2
3 4 5 5 5 5 4 4 4 4 4 4 4 4 4 4 4 4 5 4 4 5 5 4 3 3 4 3 3 4 4 3 3 3 3 2 2 2 2 2 2 2 2 2
5 6 6 6 5 5 5 5 5 5 5 5 5 5 4 4 4 4 4 4 4 4 4 3 3 2 2 2 2 2 2 2 2 2 2 2 2 2 2 2 2 2 2 2
6 6 6 5 5 5 5 6 6 6 6 5 5 5 5 4 4 4 4 4 4 3 3 3 3 2 1 1 1 1 1 2 2 2 2 2 2 2 1 1 1 2 2 2
6 6 5 5 5 5 6 6 7 7 7 6 5 5 5 4 3 4 4 4 3 3 3 3 2 2 1 1 1 1 1 1 2 2 2 2 1 1 1 1 1 2 2 2
6 6 6 6 6 6 6 7 7 7 6 6 6 5 5 4 4 4 4 4 3 2 2 2 1 1 0 1 1 1 1 1 1 1 1 1 1 1 1 1 1 1 2 2
5 6 6 7 6 6 7 7 7 7 7 7 7 7 6 6 5 5 4 3 2 2 2 1 0 0 0 1 1 1 1 1 1 1 1 1 1 1 1 1 1 1 1 2
4 5 6 7 6 6 6 7 8 9 9 9 9 8 8 8 7 6 4 3 2 1 1 1 0 0 0 1 1 1 1 1 1 1 1 1 1 1 1 1 1 1 1 1
3 3 5 6 6 6 5 6 8 9 9 9 9 9 9 9 7 6 4 3 2 1 1 1 1 0 0 1 1 1 1 1 1 1 1 1 1 1 1 1 1 1 1 1
3 3 4 7 7 6 6 6 6 7 7 8 9 9 9 8 7 5 4 4 3 2 1 1 1 1 0 1 1 1 1 1 1 1 1 1 1 1 1 1 1 1 1 1

GEFSNGP_con_maxscp_234.txt.gz
SCP
0 0 0 0 0 0 1 1 1 1 2 4 7 7 7 7 7 6 5 5 6 7 8 8 9 10 11 10 7 7 8 9 9 7 5 5 4 3 3 4 5 6 7 7
0 0 0 0 0 1 1 2 2 2 2 4 6 7 6 6 6 6 5 5 6 7 8 8 9 11 12 10 8 8 9 9 8 6 5 5 4 4 4 4 5 6 7 7
0 0 0 1 1 2 3 3 3 3 3 4 5 6 7 8 7 6 5 5 6 7 9 9 10 11 12 11 10 10 10 8 7 6 5 5 5 5 5 6 6 7 7 7
0 0 0 1 1 2 2 3 3 4 4 4 5 7 8 10 8 7 6 5 5 7 9 10 10 11 11 11 11 12 11 9 8 7 5 5 5 6 7 7 7 7 7 7
1 1 1 1 1 1 2 3 4 4 4 5 6 7 8 9 8 7 6 6 6 6 9 11 12 11 12 12 12 12 11 10 8 6 6 5 6 7 8 8 8 7 8 8
1 1 1 1 2 2 2 3 4 5 5 7 7 7 7 7 7 7 7 6 6 6 8 11 12 13 13 14 13 12 11 10 8 7 7 7 8 8 8 8 7 7 8 7
1 1 2 2 2 2 2 3 4 5 7 8 9 8 9 8 8 8 7 6 5 6 7 10 11 12 13 14 14 13 11 10 10 9 9 9 9 9 8 7 7 7 7 7
2 2 3 3 3 3 3 3 4 5 7 9 10 11 11 9 8 7 6 5 5 6 8 9 10 10 11 13 14 13 11 11 12 12 10 9 9 8 7 7 7 7 6 6
4 4 5 5 4 5 5 4 4 6 9 11 12 13 11 9 7 6 6 5 5 6 7 8 8 9 10 12 14 12 10 10 11 11 10 9 9 8 7 7 7 7 6 6
7 6 6 6 6 7 7 6 7 9 11 12 13 11 9 7 7 6 6 5 5 5 7 8 9 9 10 12 13 11 10 9 9 9 9 10 9 8 8 7 7 7 7 7
7 7 7 7 8 8 9 10 10 11 11 11 10 8 6 6 6 7 6 5 5 6 8 9 10 9 10 11 12 11 10 9 8 8 10 11 10 9 8 7 6 7 7 8
6 6 7 7 8 9 10 11 12 11 10 9 7 5 5 5 6 7 7 6 5 6 9 11 12 12 11 11 12 11 10 9 8 7 9 11 10 8 7 6 4 4 6 7
5 6 6 7 8 8 8 9 10 10 8 5 5 5 5 5 6 7 7 7 6 7 8 11 14 14 13 13 13 12 10 8 7 6 8 9 9 8 8 6 4 3 3 3
5 6 7 7 7 7 7 7 8 8 6 5 5 6 6 7 7 7 7 7 7 7 8 9 12 14 14 14 14 13 10 8 6 6 7 8 9 10 11 8 5 3 2 1
6 7 7 7 6 6 6 6 7 7 7 7 7 7 7 8 8 8 7 7 7 7 7 8 11 13 15 15 14 13 10 8 7 7 7 9 11 12 12 10 6 4 4 3
6 6 6 6 5 5 5 5 6 6 8 8 8 7 8 9 9 9 8 8 7 7 7 8 10 13 15 16 15 13 11 9 9 9 9 10 12 12 10 7 5 4 4 5
5 5 5 4 4 4 4 4 5 6 7 7 7 7 8 9 9 9 8 7 7 6 6 6 7 9 12 14 15 14 12 11 12 12 11 10 9 8 7 5 4 4 4 4
4 4 4 4 4 4 4 4 4 5 6 7 7 7 8 9 9 8 7 6 6 6 5 5 5 7 9 11 13 12 11 11 12 12 10 7 5 5 5 4 4 4 3 3
2 3 3 4 5 6 6 6 5 5 6 6 6 6 6 7 8 8 6 6 6 6 6 6 6 7 8 9 10 9 8 8 8 7 6 4 3 4 4 4 4 4 3 2
1 1 2 4 5 7 7 7 6 5 5 5 5 5 5 6 7 7 6 6 7 7 6 6 6 7 8 7 6 6 5 4 4 3 3 3 3 3 3 3 3 3 3 2
2 2 3 4 5 6 6 6 5 4 4 4 5 5 5 5 6 6 7 7 7 7 6 6 6 7 7 6 4 3 3 3 2 2 3 3 3 3 3 3 3 3 2 2
4 4 4 5 6 5 5 4 4 3 4 5 5 5 5 5 6 6 7 7 7 7 6 6 6 6 5 5 3 2 2 2 3 3 3 3 3 2 3 3 2 2 2 2
5 4 4 6 6 5 4 4 4 5 5 6 5 4 4 5 6 6 7 7 6 6 5 5 5 4 3 3 3 2 2 2 3 4 4 4 3 3 2 2 2 2 2 2
7 5 4 6 6 5 5 5 6 6 6 5 4 4 5 5 6 6 6 6 5 5 5 4 3 2 2 3 3 2 2 3 3 4 4 4 3 2 2 2 1 1 1 1
7 5 4 5 5 6 6 7 7 6 4 4 4 4 5 5 5 5 6 6 5 5 5 4 2 1 2 3 3 3 3 3 3 3 3 3 3 2 2 1 1 1 1 1
4 4 4 5 6 7 7 7 6 4 4 3 4 4 5 5 6 6 6 7 6 6 6 4 2 2 3 4 3 3 3 3 2 2 2 2 2 2 1 1 1 1 1 1
3 3 4 5 6 7 7 6 5 4 3 4 4 4 6 6 6 6 6 7 7 7 6 5 3 2 4 4 3 3 2 2 2 1 1 2 2 2 1 1 1 1 1 1

GEFSNGP_con_maxscp_240.txt.gz
SCP
0 1 1 2 2 2 1 1 1 2 2 2 3 5 7 8 9 9 9 8 7 6 5 4 3 3 3 4 4 6 9 9 8 8 6 4 2 1 1 1 1 1 2 2
0 1 1 2 2 2 2 2 1 2 2 3 5 6 7 7 7 7 7 7 6 5 5 4 4 3 3 4 6 8 10 10 9 8 6 3 2 2 2 2 2 2 2 2
0 1 1 2 2 2 3 3 2 3 4 6 6 6 6 6 6 6 6 6 5 5 5 5 5 5 5 6 8 10 12 11 10 7 5 3 2 2 3 3 3 3 3 3
0 0 1 1 2 2 3 4 4 4 6 7 7 7 6 5 5 5 6 6 5 5 6 6 6 6 6 7 10 11 11 11 9 6 4 3 3 3 3 4 4 3 3 2
0 0 1 1 1 2 3 4 5 6 7 8 8 8 6 5 5 5 5 6 5 5 5 6 6 6 6 8 10 11 10 9 8 7 5 4 4 4 4 4 4 4 3 3
0 0 1 2 2 2 2 3 4 6 7 8 8 7 5 5 4 4 4 4 5 4 4 5 5 6 6 7 8 9 9 9 9 8 6 5 5 5 5 5 5 4 4 4
0 1 2 3 3 2 2 2 4 5 7 7 7 6 4 5 5 3 3 3 3 4 4 4 5 5 5 5 6 7 8 8 8 8 6 5 5 5 6 6 6 5 5 4
1 1 3 5 4 3 3 4 5 6 7 7 6 5 5 5 4 3 3 3 4 4 4 5 5 6 5 4 4 5 5 5 5 5 5 5 5 5 5 6 5 5 4 4
1 2 4 5 5 5 6 7 8 8 8 8 6 6 5 5 4 3 3 3 4 5 4 5 6 7 4 3 3 3 3 3 3 4 4 4 5 5 5 5 5 5 4 4
2 2 3 4 6 8 9 9 9 9 9 8 7 6 5 4 3 2 2 3 4 4 4 4 5 5 3 2 2 3 4 4 4 4 4 4 5 5 5 5 5 5 4 4
2 2 3 4 5 7 8 9 9 9 9 8 6 5 4 3 3 3 3 3 3 3 3 3 3 3 3 2 3 4 4 4 4 4 4 4 4 5 5 5 5 5 5 5
2 2 3 4 5 5 6 6 7 8 8 6 5 4 3 4 4 4 3 3 3 2 2 2 3 3 4 5 5 5 5 5 4 4 4 3 3 3 4 4 4 4 4 5
4 4 5 6 6 6 5 5 5 6 5 5 4 4 4 6 6 5 4 3 3 2 2 3 3 4 5 7 8 7 6 5 5 4 4 4 4 3 3 3 3 2 2 2
5 6 7 8 7 6 5 4 4 4 5 5 5 5 5 6 6 5 4 3 3 2 2 3 3 4 7 10 12 11 9 7 6 5 4 4 4 4 5 4 3 2 1 1
5 5 7 8 7 5 4 4 4 5 6 7 6 6 5 5 5 4 4 3 3 3 3 3 3 4 7 10 13 14 13 10 7 5 4 4 4 4 5 4 4 3 2 1
4 4 5 5 5 4 4 5 6 7 8 8 7 6 6 5 5 4 4 3 3 3 3 3 4 5 6 9 12 14 13 11 8 6 4 3 3 3 3 3 3 3 3 3
3 3 3 3 3 4 5 6 6 7 7 7 6 6 6 6 6 5 4 4 4 4 3 3 4 5 6 7 10 12 12 10 8 6 5 3 3 3 3 2 3 3 3 3
2 2 2 2 2 2 3 4 5 5 6 6 5 6 6 6 6 6 5 5 4 4 4 3 4 4 5 5 7 9 10 9 8 7 6 5 4 4 3 3 2 2 2 1
1 1 1 1 1 1 2 3 4 5 5 5 5 5 5 5 5 5 5 5 5 4 4 3 3 3 3 4 5 8 9 9 9 8 6 5 5 4 4 3 2 2 1 1
1 1 1 1 0 0 1 2 4 5 5 6 6 5 4 4 4 5 5 5 4 4 3 3 3 3 3 3 5 7 8 8 8 7 6 5 5 4 4 3 2 1 1 0
1 1 1 0 0 0 1 1 3 4 5 6 6 5 4 3 3 3 4 4 3 3 3 3 3 3 3 4 5 7 7 7 6 5 4 4 4 4 4 3 2 1 1 0
1 1 0 0 0 1 1 2 3 4 5 6 5 4 3 2 2 3 3 3 3 3 3 3 3 4 4 5 6 6 6 5 4 3 3 3 4 4 4 3 2 1 1 1
1 1 1 1 2 3 4 4 5 5 5 5 4 3 3 2 2 2 2 3 3 3 3 4 3 3 4 5 6 6 5 4 3 3 2 2 3 3 3 3 2 1 1 0
1 1 3 4 5 6 6 5 5 6 5 4 3 2 2 2 1 1 2 3 3 3 4 4 3 2 3 5 6 5 5 4 3 2 2 1 2 2 2 2 1 1 0 0
1 2 4 5 6 6 5 5 5 4 3 2 2 1 1 1 1 1 2 3 3 3 3 3 2 1 2 3 4 4 4 4 3 2 1 1 1 1 1 1 1 1 0 0
1 2 3 4 5 4 4 3 3 2 2 1 1 1 0 1 1 1 1 2 2 2 2 2 1 1 1 2 3 3 3 2 2 1 1 1 1 1 1 1 1 1 0 0
1 1 2 2 3 2 2 2 2 1 1 1 1 1 1 1 1 1 1 1 1 1 1 1 1 0 1 2 2 2 2 1 1 1 1 1 1 1 2 2 1 1 1 0

GEFSNGP_con_maxscp_246.txt.gz
SCP
2 2 2 2 2 2 1 1 1 1 1 2 2 3 4 4 4 3 3 3 2 2 3 3 3 3 2 2 2 2 2 2 2 2 2 1 2 3 3 2 1 1 1 1
2 2 2 2 2 2 1 1 1 1 1 2 2 3 3 3 3 3 3 3 3 3 3 3 3 2 2 2 2 2 2 2 2 2 2 2 3 4 3 2 1 1 1 1
2 2 2 2 1 1 1 1 2 2 1 2 3 3 3 3 3 4 4 4 4 3 3 3 3 3 2 2 2 2 2 2 3 3 3 3 4 4 3 2 2 1 1 1
2 2 1 1 1 1 1 1 1 2 2 2 3 3 3 3 3 4 4 4 4 3 3 4 4 3 3 2 2 2 2 2 3 4 4 4 4 3 3 3 2 2 2 2
1 1 1 1 1 1 1 1 1 2 2 3 3 4 3 3 3 4 4 4 3 3 3 3 4 4 3 3 3 3 3 3 4 5 5 5 4 4 4 3 3 3 2 2
1 1 1 1 1 1 1 1 1 2 2 3 3 3 3 3 4 4 4 4 3 2 2 3 3 3 3 3 3 4 4 4 5 5 5 5 4 4 4 4 3 3 3 3
0 0 1 1 2 2 2 2 2 2 3 3 2 3 4 5 5 5 4 3 3 2 2 2 2 2 2 3 3 3 3 4 4 4 4 4 4 4 3 3 3 3 3 3
0 0 1 1 1 2 2 2 2 2 3 3 3 4 6 6 5 4 3 2 2 2 2 1 1 1 2 2 2 2 2 2 3 3 4 4 3 3 3 3 3 3 3 3
0 0 0 1 1 2 2 3 3 2 2 2 3 5 6 5 4 3 2 2 2 2 1 1 1 1 1 1 1 2 2 2 2 2 3 3 3 2 2 2 3 3 3 3
0 0 0 1 1 2 3 4 3 3 2 2 3 4 4 3 2 2 1 1 1 1 1 1 2 2 1 1 1 2 2 2 2 2 2 2 3 3 3 3 3 3 3 3
1 1 1 1 2 2 3 3 3 3 2 2 3 3 2 2 2 2 1 1 1 1 1 2 2 2 1 1 1 1 2 2 2 2 2 2 3 3 3 3 3 4 4 4
2 2 2 2 3 2 2 3 3 3 3 3 2 2 2 2 2 2 2 2 1 1 2 2 2 2 2 1 1 1 1 2 2 2 2 2 3 3 3 3 3 2 3 3
2 2 3 3 3 3 3 3 3 3 4 3 2 3 3 3 2 2 2 2 2 2 2 2 2 2 2 1 1 1 1 1 1 1 2 2 2 3 3 3 2 1 1 1
1 2 2 3 3 3 4 4 4 4 4 4 3 3 3 3 3 3 2 2 2 2 2 2 2 2 2 2 2 2 2 2 2 2 2 2 2 2 3 3 3 2 1 1
1 1 1 1 2 3 4 5 5 5 4 4 4 3 4 4 5 4 3 3 3 2 2 2 2 2 2 2 2 2 2 2 2 2 2 2 2 2 3 4 4 3 2 1
1 1 1 1 1 2 3 5 6 5 5 5 5 4 4 5 5 5 4 3 3 3 2 2 2 2 2 2 2 2 2 2 3 3 3 2 2 2 2 3 3 2 1 1
1 1 1 1 1 2 3 4 5 5 5 5 4 4 4 4 4 4 3 3 3 3 3 2 2 1 1 1 1 1 2 2 3 4 4 3 2 1 1 1 1 1 1 1
1 1 1 1 1 2 2 3 3 3 3 3 3 3 3 3 3 2 2 2 3 3 3 3 2 1 1 1 1 1 2 3 4 5 4 3 2 1 1 1 1 1 1 1
0 0 0 0 1 1 2 2 2 2 2 2 2 3 3 4 3 3 3 3 3 3 4 3 2 1 1 1 1 2 2 3 4 4 4 2 2 1 1 1 1 1 1 1
0 0 0 0 1 1 2 2 2 2 2 3 3 4 4 4 4 3 3 3 3 3 3 2 1 1 1 1 1 2 2 3 3 3 3 2 2 1 1 1 1 1 1 1
0 0 0 0 1 1 1 2 2 2 2 3 4 4 4 3 3 3 3 3 2 2 2 1 1 1 1 1 1 1 2 2 2 2 2 2 2 2 1 1 2 2 2 2
0 0 0 0 0 0 1 1 1 1 1 1 2 2 2 2 2 2 2 1 1 1 1 1 1 1 1 1 1 1 1 1 2 2 2 2 2 2 2 2 2 2 2 2
0 0 0 0 0 0 0 0 0 0 0 0 0 0 0 1 1 1 0 0 0 0 0 0 0 0 0 1 1 1 1 2 2 3 3 3 3 3 2 2 2 2 2 2
0 0 0 0 0 0 0 0 0 0 0 0 0 0 0 0 0 0 0 0 0 0 0 0 0 0 0 0 1 1 1 2 3 3 4 4 3 3 2 2 2 1 1 1
0 0 0 0 0 0 0 0 0 0 0 0 0 0 1 1 0 0 0 0 0 0 0 0 0 0 0 0 0 1 1 2 3 3 4 4 4 3 2 2 1 1 1 1
0 0 0 0 0 0 0 0 1 1 1 1 1 1 0 0 0 0 0 0 0 0 0 0 0 0 0 0 0 0 1 1 2 2 3 3 3 2 2 1 1 1 1 1
0 0 0 0 0 0 1 1 1 1 1 1 1 1 0 0 0 0 0 0 0 0 0 0 0 0 0 0 0 0 0 1 1 1 2 2 2 2 1 1 1 1 1 1